Time,TemperatureF,DewpointF,PressureIn,WindDirection,WindDirectionDegrees,WindSpeedMPH,WindSpeedGustMPH,Humidity,HourlyPrecipIn,Conditions,Clouds,dailyrainin,SoftwareType,DateUTC
2013-02-07 00:00:00,31.6,25.2,30.34,ESE,112,0.0,0.0,77,0.00,,,43.52,VWS V14.01,2013-02-07 05:00:00,
2013-02-07 00:02:00,31.6,25.2,30.34,ESE,112,0.0,0.0,77,0.00,,,0.00,VWS V14.01,2013-02-07 05:02:00,
2013-02-07 00:05:00,31.6,25.2,30.34,ESE,112,0.0,0.0,77,0.00,,,0.00,VWS V14.01,2013-02-07 05:05:00,
2013-02-07 00:06:00,31.6,25.2,30.34,ESE,112,0.0,0.0,77,0.00,,,0.00,VWS V14.01,2013-02-07 05:06:00,
2013-02-07 00:07:00,31.2,25.1,30.35,ESE,112,0.0,0.0,78,0.00,,,0.00,VWS V14.01,2013-02-07 05:07:00,
2013-02-07 00:10:00,31.2,25.1,30.35,ESE,112,0.0,0.0,78,0.00,,,0.00,VWS V14.01,2013-02-07 05:10:00,
2013-02-07 00:12:00,31.2,25.1,30.35,ESE,112,0.0,0.0,78,0.00,,,0.00,VWS V14.01,2013-02-07 05:12:00,
2013-02-07 00:13:00,31.2,25.1,30.35,ESE,112,0.0,0.0,78,0.00,,,0.00,VWS V14.01,2013-02-07 05:13:00,
2013-02-07 00:15:00,31.2,25.1,30.35,ESE,112,0.0,0.0,78,0.00,,,0.00,VWS V14.01,2013-02-07 05:15:00,
2013-02-07 00:17:00,31.1,25.0,30.35,ESE,112,0.0,0.0,78,0.00,,,0.00,VWS V14.01,2013-02-07 05:17:00,
2013-02-07 00:18:00,31.2,25.1,30.35,ESE,112,0.0,0.0,78,0.00,,,0.00,VWS V14.01,2013-02-07 05:18:00,
2013-02-07 00:20:00,31.1,25.0,30.35,ESE,112,0.0,0.0,78,0.00,,,0.00,VWS V14.01,2013-02-07 05:20:00,
2013-02-07 00:23:00,31.1,25.0,30.36,ESE,112,0.0,0.0,78,0.00,,,0.00,VWS V14.01,2013-02-07 05:23:00,
2013-02-07 00:26:00,30.9,24.9,30.36,ESE,112,0.0,0.0,78,0.00,,,0.00,VWS V14.01,2013-02-07 05:26:00,
2013-02-07 00:28:00,30.9,24.9,30.35,ESE,112,0.0,0.0,78,0.00,,,0.00,VWS V14.01,2013-02-07 05:28:00,
2013-02-07 00:29:00,30.9,24.9,30.36,ESE,112,0.0,0.0,78,0.00,,,0.00,VWS V14.01,2013-02-07 05:29:00,
2013-02-07 00:31:00,30.9,24.9,30.36,ESE,112,0.0,0.0,78,0.00,,,0.00,VWS V14.01,2013-02-07 05:31:00,
2013-02-07 00:33:00,30.9,24.9,30.36,ESE,112,0.0,0.0,78,0.00,,,0.00,VWS V14.01,2013-02-07 05:33:00,
2013-02-07 00:34:00,30.9,24.9,30.36,ESE,112,0.0,0.0,78,0.00,,,0.00,VWS V14.01,2013-02-07 05:34:00,
2013-02-07 00:35:00,30.9,24.9,30.36,ESE,112,0.0,0.0,78,0.00,,,0.00,VWS V14.01,2013-02-07 05:35:00,
2013-02-07 00:37:00,30.9,24.9,30.36,ESE,112,0.0,0.0,78,0.00,,,0.00,VWS V14.01,2013-02-07 05:37:00,
2013-02-07 00:39:00,30.7,24.7,30.36,ESE,112,0.0,0.0,78,0.00,,,0.00,VWS V14.01,2013-02-07 05:39:00,
2013-02-07 00:41:00,30.7,25.0,30.36,ESE,112,0.0,0.0,79,0.00,,,0.00,VWS V14.01,2013-02-07 05:41:00,
2013-02-07 00:42:00,30.7,25.0,30.36,ESE,112,0.0,0.0,79,0.00,,,0.00,VWS V14.01,2013-02-07 05:42:00,
2013-02-07 00:44:00,30.7,25.0,30.37,ESE,112,0.0,0.0,79,0.00,,,0.00,VWS V14.01,2013-02-07 05:44:00,
2013-02-07 00:45:00,30.7,25.0,30.37,ESE,112,0.0,0.0,79,0.00,,,0.00,VWS V14.01,2013-02-07 05:45:00,
2013-02-07 00:46:00,30.7,25.0,30.37,ESE,112,0.0,0.0,79,0.00,,,0.00,VWS V14.01,2013-02-07 05:46:00,
2013-02-07 00:47:00,30.5,24.8,30.37,ESE,112,0.0,0.0,79,0.00,,,0.00,VWS V14.01,2013-02-07 05:47:00,
2013-02-07 00:50:00,30.3,24.6,30.37,ESE,112,0.0,0.0,79,0.00,,,0.00,VWS V14.01,2013-02-07 05:50:00,
2013-02-07 00:51:00,30.3,24.6,30.38,ESE,112,0.0,0.0,79,0.00,,,0.00,VWS V14.01,2013-02-07 05:51:00,
2013-02-07 00:53:00,30.3,24.3,30.38,ESE,112,0.0,0.0,78,0.00,,,0.00,VWS V14.01,2013-02-07 05:53:00,
2013-02-07 00:55:00,30.3,24.3,30.38,ESE,112,0.0,0.0,78,0.00,,,0.00,VWS V14.01,2013-02-07 05:55:00,
2013-02-07 00:56:00,30.3,24.3,30.38,ESE,112,0.0,0.0,78,0.00,,,0.00,VWS V14.01,2013-02-07 05:56:00,
2013-02-07 00:57:00,30.2,24.2,30.38,ESE,112,0.0,0.0,78,0.00,,,0.00,VWS V14.01,2013-02-07 05:57:00,
2013-02-07 00:59:00,30.0,24.0,30.39,ESE,112,0.0,0.0,78,0.00,,,0.00,VWS V14.01,2013-02-07 05:59:00,
2013-02-07 01:01:00,30.0,24.3,30.39,ESE,112,0.0,0.0,79,0.00,,,0.00,VWS V14.01,2013-02-07 06:01:00,
2013-02-07 01:03:00,30.0,24.3,30.39,ESE,112,0.0,0.0,79,0.00,,,0.00,VWS V14.01,2013-02-07 06:03:00,
2013-02-07 01:04:00,30.0,24.0,30.39,ESE,112,0.0,0.0,78,0.00,,,0.00,VWS V14.01,2013-02-07 06:04:00,
2013-02-07 01:07:00,29.8,24.1,30.39,ESE,112,0.0,0.0,79,0.00,,,0.00,VWS V14.01,2013-02-07 06:07:00,
2013-02-07 01:09:00,29.6,23.9,30.38,ESE,112,0.0,0.0,79,0.00,,,0.00,VWS V14.01,2013-02-07 06:09:00,
2013-02-07 01:12:00,29.4,23.7,30.39,ESE,112,0.0,0.0,79,0.00,,,0.00,VWS V14.01,2013-02-07 06:12:00,
2013-02-07 01:13:00,29.4,23.7,30.39,ESE,112,0.0,0.0,79,0.00,,,0.00,VWS V14.01,2013-02-07 06:13:00,
2013-02-07 01:15:00,29.4,23.7,30.39,ESE,112,0.0,0.0,79,0.00,,,0.00,VWS V14.01,2013-02-07 06:15:00,
2013-02-07 01:18:00,29.3,23.6,30.38,ESE,112,0.0,0.0,79,0.00,,,0.00,VWS V14.01,2013-02-07 06:18:00,
2013-02-07 01:20:00,29.1,23.7,30.38,ESE,112,0.0,0.0,80,0.00,,,0.00,VWS V14.01,2013-02-07 06:20:00,
2013-02-07 01:23:00,29.1,23.7,30.38,ESE,112,0.0,0.0,80,0.00,,,0.00,VWS V14.01,2013-02-07 06:23:00,
2013-02-07 01:25:00,29.1,23.7,30.37,ESE,112,0.0,0.0,80,0.00,,,0.00,VWS V14.01,2013-02-07 06:25:00,
2013-02-07 01:27:00,28.9,23.5,30.37,ESE,112,0.0,0.0,80,0.00,,,0.00,VWS V14.01,2013-02-07 06:27:00,
2013-02-07 01:28:00,28.9,23.5,30.37,ESE,112,0.0,0.0,80,0.00,,,0.00,VWS V14.01,2013-02-07 06:28:00,
2013-02-07 01:30:00,28.9,23.5,30.37,ESE,112,0.0,0.0,80,0.00,,,0.00,VWS V14.01,2013-02-07 06:30:00,
2013-02-07 01:33:00,28.7,23.3,30.37,ESE,112,0.0,0.0,80,0.00,,,0.00,VWS V14.01,2013-02-07 06:33:00,
2013-02-07 01:36:00,28.7,23.6,30.37,ESE,112,0.0,0.0,81,0.00,,,0.00,VWS V14.01,2013-02-07 06:36:00,
2013-02-07 01:38:00,28.5,23.4,30.37,ESE,112,0.0,0.0,81,0.00,,,0.00,VWS V14.01,2013-02-07 06:38:00,
2013-02-07 01:39:00,28.5,23.4,30.37,ESE,112,0.0,0.0,81,0.00,,,0.00,VWS V14.01,2013-02-07 06:39:00,
2013-02-07 01:41:00,28.5,23.4,30.37,ESE,112,0.0,0.0,81,0.00,,,0.00,VWS V14.01,2013-02-07 06:41:00,
2013-02-07 01:43:00,28.4,23.3,30.38,ESE,112,0.0,0.0,81,0.00,,,0.00,VWS V14.01,2013-02-07 06:43:00,
2013-02-07 01:44:00,28.2,23.1,30.37,ESE,112,0.0,0.0,81,0.00,,,0.00,VWS V14.01,2013-02-07 06:44:00,
2013-02-07 01:46:00,28.2,23.1,30.37,ESE,112,0.0,0.0,81,0.00,,,0.00,VWS V14.01,2013-02-07 06:46:00,
2013-02-07 01:48:00,28.2,23.1,30.37,ESE,112,0.0,0.0,81,0.00,,,0.00,VWS V14.01,2013-02-07 06:48:00,
2013-02-07 01:49:00,28.2,23.1,30.37,ESE,112,0.0,0.0,81,0.00,,,0.00,VWS V14.01,2013-02-07 06:49:00,
2013-02-07 01:53:00,28.2,23.1,30.37,ESE,112,0.0,0.0,81,0.00,,,0.00,VWS V14.01,2013-02-07 06:53:00,
2013-02-07 01:54:00,28.2,23.1,30.37,ESE,112,0.0,0.0,81,0.00,,,0.00,VWS V14.01,2013-02-07 06:54:00,
2013-02-07 01:59:00,28.0,23.2,30.38,ESE,112,0.0,0.0,82,0.00,,,0.00,VWS V14.01,2013-02-07 06:59:00,
2013-02-07 02:00:00,28.0,23.2,30.38,ESE,112,0.0,0.0,82,0.00,,,0.00,VWS V14.01,2013-02-07 07:00:00,
2013-02-07 02:04:00,27.8,23.0,30.38,ESE,112,0.0,0.0,82,0.00,,,0.00,VWS V14.01,2013-02-07 07:04:00,
2013-02-07 02:05:00,27.6,22.8,30.38,ESE,112,0.0,0.0,82,0.00,,,0.00,VWS V14.01,2013-02-07 07:05:00,
2013-02-07 02:09:00,27.6,22.8,30.38,ESE,112,0.0,0.0,82,0.00,,,0.00,VWS V14.01,2013-02-07 07:09:00,
2013-02-07 02:11:00,27.5,22.7,30.38,ESE,112,0.0,0.0,82,0.00,,,0.00,VWS V14.01,2013-02-07 07:11:00,
2013-02-07 02:14:00,27.3,22.5,30.39,ESE,112,0.0,0.0,82,0.00,,,0.00,VWS V14.01,2013-02-07 07:14:00,
2013-02-07 02:15:00,27.3,22.5,30.38,ESE,112,0.0,0.0,82,0.00,,,0.00,VWS V14.01,2013-02-07 07:15:00,
2013-02-07 02:16:00,27.3,22.5,30.38,ESE,112,0.0,0.0,82,0.00,,,0.00,VWS V14.01,2013-02-07 07:16:00,
2013-02-07 02:19:00,27.1,22.4,30.38,ESE,112,0.0,0.0,82,0.00,,,0.00,VWS V14.01,2013-02-07 07:19:00,
2013-02-07 02:20:00,27.1,22.4,30.38,ESE,112,0.0,0.0,82,0.00,,,0.00,VWS V14.01,2013-02-07 07:20:00,
2013-02-07 02:21:00,27.1,22.4,30.38,ESE,112,0.0,0.0,82,0.00,,,0.00,VWS V14.01,2013-02-07 07:21:00,
2013-02-07 02:26:00,27.1,22.4,30.38,ESE,112,0.0,0.0,82,0.00,,,0.00,VWS V14.01,2013-02-07 07:26:00,
2013-02-07 02:27:00,27.1,22.4,30.38,ESE,112,0.0,0.0,82,0.00,,,0.00,VWS V14.01,2013-02-07 07:27:00,
2013-02-07 02:31:00,27.1,22.4,30.39,ESE,112,0.0,0.0,82,0.00,,,0.00,VWS V14.01,2013-02-07 07:31:00,
2013-02-07 02:32:00,27.1,22.4,30.39,ESE,112,0.0,0.0,82,0.00,,,0.00,VWS V14.01,2013-02-07 07:32:00,
2013-02-07 02:36:00,27.1,22.4,30.38,ESE,112,0.0,0.0,82,0.00,,,0.00,VWS V14.01,2013-02-07 07:36:00,
2013-02-07 02:37:00,27.1,22.4,30.38,ESE,112,0.0,0.0,82,0.00,,,0.00,VWS V14.01,2013-02-07 07:37:00,
2013-02-07 02:38:00,27.1,22.4,30.38,ESE,112,0.0,0.0,82,0.00,,,0.00,VWS V14.01,2013-02-07 07:38:00,
2013-02-07 02:41:00,27.1,22.4,30.38,ESE,112,0.0,0.0,82,0.00,,,0.00,VWS V14.01,2013-02-07 07:41:00,
2013-02-07 02:42:00,27.1,22.4,30.38,ESE,112,0.0,0.0,82,0.00,,,0.00,VWS V14.01,2013-02-07 07:42:00,
2013-02-07 02:43:00,27.1,22.4,30.38,ESE,112,0.0,0.0,82,0.00,,,0.00,VWS V14.01,2013-02-07 07:43:00,
2013-02-07 02:47:00,27.1,22.4,30.38,ESE,112,0.0,0.0,82,0.00,,,0.00,VWS V14.01,2013-02-07 07:47:00,
2013-02-07 02:48:00,27.1,22.4,30.38,ESE,112,0.0,0.0,82,0.00,,,0.00,VWS V14.01,2013-02-07 07:48:00,
2013-02-07 02:52:00,27.1,22.4,30.38,NE,45,0.0,0.0,82,0.00,,,0.00,VWS V14.01,2013-02-07 07:52:00,
2013-02-07 02:53:00,27.1,22.4,30.38,ESE,112,0.0,0.0,82,0.00,,,0.00,VWS V14.01,2013-02-07 07:53:00,
2013-02-07 02:54:00,26.9,22.1,30.38,ESE,112,0.0,0.0,82,0.00,,,0.00,VWS V14.01,2013-02-07 07:54:00,
2013-02-07 02:57:00,26.9,22.1,30.37,ESE,112,0.0,0.0,82,0.00,,,0.00,VWS V14.01,2013-02-07 07:57:00,
2013-02-07 02:58:00,26.9,22.1,30.37,ESE,112,0.0,0.0,82,0.00,,,0.00,VWS V14.01,2013-02-07 07:58:00,
2013-02-07 02:59:00,26.9,22.1,30.37,ESE,112,0.0,0.0,82,0.00,,,0.00,VWS V14.01,2013-02-07 07:59:00,
2013-02-07 03:02:00,26.7,22.0,30.37,ESE,112,0.0,0.0,82,0.00,,,0.00,VWS V14.01,2013-02-07 08:02:00,
2013-02-07 03:03:00,26.7,22.0,30.37,ESE,112,0.0,0.0,82,0.00,,,0.00,VWS V14.01,2013-02-07 08:03:00,
2013-02-07 03:04:00,26.7,22.0,30.37,ESE,112,0.0,0.0,82,0.00,,,0.00,VWS V14.01,2013-02-07 08:04:00,
2013-02-07 03:05:00,26.7,22.0,30.37,ESE,112,0.0,0.0,82,0.00,,,0.00,VWS V14.01,2013-02-07 08:05:00,
2013-02-07 03:08:00,26.7,22.0,30.37,ESE,112,0.0,0.0,82,0.00,,,0.00,VWS V14.01,2013-02-07 08:08:00,
2013-02-07 03:09:00,26.7,22.0,30.37,ESE,112,0.0,0.0,82,0.00,,,0.00,VWS V14.01,2013-02-07 08:09:00,
2013-02-07 03:10:00,26.6,21.9,30.37,ESE,112,0.0,0.0,82,0.00,,,0.00,VWS V14.01,2013-02-07 08:10:00,
2013-02-07 03:14:00,26.6,22.1,30.36,ESE,112,0.0,0.0,83,0.00,,,0.00,VWS V14.01,2013-02-07 08:14:00,
2013-02-07 03:15:00,26.6,22.1,30.37,ESE,112,0.0,0.0,83,0.00,,,0.00,VWS V14.01,2013-02-07 08:15:00,
2013-02-07 03:16:00,26.6,22.1,30.37,ESE,112,0.0,0.0,83,0.00,,,0.00,VWS V14.01,2013-02-07 08:16:00,
2013-02-07 03:19:00,26.6,22.1,30.36,ESE,112,0.0,0.0,83,0.00,,,0.00,VWS V14.01,2013-02-07 08:19:00,
2013-02-07 03:20:00,26.6,22.1,30.36,ESE,112,0.0,0.0,83,0.00,,,0.00,VWS V14.01,2013-02-07 08:20:00,
2013-02-07 03:22:00,26.7,22.2,30.36,ESE,112,0.0,0.0,83,0.00,,,0.00,VWS V14.01,2013-02-07 08:22:00,
2013-02-07 03:24:00,26.7,22.2,30.36,ESE,112,0.0,0.0,83,0.00,,,0.00,VWS V14.01,2013-02-07 08:24:00,
2013-02-07 03:25:00,26.7,22.2,30.36,ESE,112,0.0,0.0,83,0.00,,,0.00,VWS V14.01,2013-02-07 08:25:00,
2013-02-07 03:27:00,26.7,22.2,30.36,ESE,112,0.0,0.0,83,0.00,,,0.00,VWS V14.01,2013-02-07 08:27:00,
2013-02-07 03:30:00,26.6,22.1,30.36,ESE,112,0.0,0.0,83,0.00,,,0.00,VWS V14.01,2013-02-07 08:30:00,
2013-02-07 03:32:00,26.6,22.1,30.36,ESE,112,0.0,0.0,83,0.00,,,0.00,VWS V14.01,2013-02-07 08:32:00,
2013-02-07 03:36:00,26.4,22.2,30.36,ESE,112,0.0,0.0,84,0.00,,,0.00,VWS V14.01,2013-02-07 08:36:00,
2013-02-07 03:37:00,26.4,22.2,30.36,ESE,112,0.0,0.0,84,0.00,,,0.00,VWS V14.01,2013-02-07 08:37:00,
2013-02-07 03:41:00,26.4,22.2,30.36,ESE,112,0.0,0.0,84,0.00,,,0.00,VWS V14.01,2013-02-07 08:41:00,
2013-02-07 03:42:00,26.4,22.2,30.35,ESE,112,0.0,0.0,84,0.00,,,0.00,VWS V14.01,2013-02-07 08:42:00,
2013-02-07 03:46:00,26.4,22.2,30.35,ESE,112,0.0,0.0,84,0.00,,,0.00,VWS V14.01,2013-02-07 08:46:00,
2013-02-07 03:47:00,26.4,22.2,30.35,ESE,112,0.0,0.0,84,0.00,,,0.00,VWS V14.01,2013-02-07 08:47:00,
2013-02-07 03:48:00,26.2,22.0,30.35,ESE,112,0.0,0.0,84,0.00,,,0.00,VWS V14.01,2013-02-07 08:48:00,
2013-02-07 03:52:00,26.2,22.0,30.35,ESE,112,0.0,0.0,84,0.00,,,0.00,VWS V14.01,2013-02-07 08:52:00,
2013-02-07 03:53:00,26.2,22.0,30.36,ESE,112,0.0,0.0,84,0.00,,,0.00,VWS V14.01,2013-02-07 08:53:00,
2013-02-07 03:57:00,25.8,21.6,30.36,ESE,112,0.0,0.0,84,0.00,,,0.00,VWS V14.01,2013-02-07 08:57:00,
2013-02-07 03:58:00,25.8,21.6,30.36,ESE,112,0.0,0.0,84,0.00,,,0.00,VWS V14.01,2013-02-07 08:58:00,
2013-02-07 03:59:00,25.8,21.6,30.36,ESE,112,0.0,0.0,84,0.00,,,0.00,VWS V14.01,2013-02-07 08:59:00,
2013-02-07 04:02:00,25.7,21.5,30.36,ESE,112,0.0,0.0,84,0.00,,,0.00,VWS V14.01,2013-02-07 09:02:00,
2013-02-07 04:03:00,25.7,21.5,30.36,ESE,112,0.0,0.0,84,0.00,,,0.00,VWS V14.01,2013-02-07 09:03:00,
2013-02-07 04:04:00,25.7,21.5,30.36,ESE,112,0.0,0.0,84,0.00,,,0.00,VWS V14.01,2013-02-07 09:04:00,
2013-02-07 04:05:00,25.7,21.5,30.36,ESE,112,0.0,0.0,84,0.00,,,0.00,VWS V14.01,2013-02-07 09:05:00,
2013-02-07 04:08:00,25.7,21.5,30.36,ESE,112,0.0,0.0,84,0.00,,,0.00,VWS V14.01,2013-02-07 09:08:00,
2013-02-07 04:10:00,25.7,21.5,30.36,ESE,112,0.0,0.0,84,0.00,,,0.00,VWS V14.01,2013-02-07 09:10:00,
2013-02-07 04:12:00,25.8,21.6,30.36,ESE,112,0.0,0.0,84,0.00,,,0.00,VWS V14.01,2013-02-07 09:12:00,
2013-02-07 04:13:00,25.8,21.6,30.36,ESE,112,0.0,0.0,84,0.00,,,0.00,VWS V14.01,2013-02-07 09:13:00,
2013-02-07 04:15:00,25.8,21.6,30.36,ESE,112,0.0,0.0,84,0.00,,,0.00,VWS V14.01,2013-02-07 09:15:00,
2013-02-07 04:16:00,25.8,21.6,30.37,ESE,112,0.0,0.0,84,0.00,,,0.00,VWS V14.01,2013-02-07 09:16:00,
2013-02-07 04:17:00,25.8,21.6,30.37,ESE,112,0.0,0.0,84,0.00,,,0.00,VWS V14.01,2013-02-07 09:17:00,
2013-02-07 04:18:00,26.0,21.8,30.37,ESE,112,0.0,0.0,84,0.00,,,0.00,VWS V14.01,2013-02-07 09:18:00,
2013-02-07 04:21:00,26.0,22.1,30.37,ESE,112,0.0,0.0,85,0.00,,,0.00,VWS V14.01,2013-02-07 09:21:00,
2013-02-07 04:22:00,26.2,22.3,30.37,ESE,112,0.0,0.0,85,0.00,,,0.00,VWS V14.01,2013-02-07 09:22:00,
2013-02-07 04:24:00,26.2,22.3,30.37,ESE,112,0.0,0.0,85,0.00,,,0.00,VWS V14.01,2013-02-07 09:24:00,
2013-02-07 04:27:00,26.2,22.3,30.37,ESE,112,0.0,0.0,85,0.00,,,0.00,VWS V14.01,2013-02-07 09:27:00,
2013-02-07 04:28:00,26.2,22.3,30.37,ESE,112,0.0,0.0,85,0.00,,,0.00,VWS V14.01,2013-02-07 09:28:00,
2013-02-07 04:29:00,26.2,22.3,30.37,ESE,112,0.0,0.0,85,0.00,,,0.00,VWS V14.01,2013-02-07 09:29:00,
2013-02-07 04:32:00,26.2,22.3,30.37,ESE,112,0.0,0.0,85,0.00,,,0.00,VWS V14.01,2013-02-07 09:32:00,
2013-02-07 04:33:00,26.2,22.3,30.37,ESE,112,0.0,0.0,85,0.00,,,0.00,VWS V14.01,2013-02-07 09:33:00,
2013-02-07 04:35:00,26.2,22.3,30.37,ESE,112,0.0,0.0,85,0.00,,,0.00,VWS V14.01,2013-02-07 09:35:00,
2013-02-07 04:38:00,26.4,22.5,30.37,ESE,112,0.0,0.0,85,0.00,,,0.00,VWS V14.01,2013-02-07 09:38:00,
2013-02-07 04:39:00,26.4,22.5,30.37,ESE,112,0.0,0.0,85,0.00,,,0.00,VWS V14.01,2013-02-07 09:39:00,
2013-02-07 04:40:00,26.4,22.5,30.37,ESE,112,0.0,0.0,85,0.00,,,0.00,VWS V14.01,2013-02-07 09:40:00,
2013-02-07 04:44:00,26.4,22.5,30.37,ESE,112,0.0,0.0,85,0.00,,,0.00,VWS V14.01,2013-02-07 09:44:00,
2013-02-07 04:45:00,26.4,22.5,30.37,ESE,112,0.0,0.0,85,0.00,,,0.00,VWS V14.01,2013-02-07 09:45:00,
2013-02-07 04:49:00,26.4,22.5,30.38,ESE,112,0.0,0.0,85,0.00,,,0.00,VWS V14.01,2013-02-07 09:49:00,
2013-02-07 04:50:00,26.4,22.5,30.37,ESE,112,0.0,0.0,85,0.00,,,0.00,VWS V14.01,2013-02-07 09:50:00,
2013-02-07 04:54:00,26.4,22.5,30.37,ESE,112,0.0,0.0,85,0.00,,,0.00,VWS V14.01,2013-02-07 09:54:00,
2013-02-07 04:55:00,26.4,22.5,30.37,ESE,112,0.0,0.0,85,0.00,,,0.00,VWS V14.01,2013-02-07 09:55:00,
2013-02-07 04:56:00,26.4,22.5,30.37,ESE,112,0.0,0.0,85,0.00,,,0.00,VWS V14.01,2013-02-07 09:56:00,
2013-02-07 05:00:00,26.4,22.5,30.37,ESE,112,0.0,0.0,85,0.00,,,0.00,VWS V14.01,2013-02-07 10:00:00,
2013-02-07 05:01:00,26.4,22.5,30.37,ESE,112,0.0,0.0,85,0.00,,,0.00,VWS V14.01,2013-02-07 10:01:00,
2013-02-07 05:05:00,26.4,22.5,30.37,ESE,112,0.0,0.0,85,0.00,,,0.00,VWS V14.01,2013-02-07 10:05:00,
2013-02-07 05:06:00,26.4,22.5,30.37,ESE,112,0.0,0.0,85,0.00,,,0.00,VWS V14.01,2013-02-07 10:06:00,
2013-02-07 05:11:00,26.4,22.5,30.37,ESE,112,0.0,0.0,85,0.00,,,0.00,VWS V14.01,2013-02-07 10:11:00,
2013-02-07 05:12:00,26.4,22.5,30.37,ESE,112,0.0,0.0,85,0.00,,,0.00,VWS V14.01,2013-02-07 10:12:00,
2013-02-07 05:13:00,26.4,22.5,30.37,ESE,112,0.0,0.0,85,0.00,,,0.00,VWS V14.01,2013-02-07 10:13:00,
2013-02-07 05:16:00,26.4,22.5,30.37,ESE,112,0.0,0.0,85,0.00,,,0.00,VWS V14.01,2013-02-07 10:16:00,
2013-02-07 05:17:00,26.4,22.5,30.37,ESE,112,0.0,0.0,85,0.00,,,0.00,VWS V14.01,2013-02-07 10:17:00,
2013-02-07 05:18:00,26.4,22.5,30.38,ESE,112,0.0,0.0,85,0.00,,,0.00,VWS V14.01,2013-02-07 10:18:00,
2013-02-07 05:19:00,26.4,22.5,30.38,ESE,112,0.0,0.0,85,0.00,,,0.00,VWS V14.01,2013-02-07 10:19:00,
2013-02-07 05:22:00,26.4,22.5,30.38,ESE,112,0.0,0.0,85,0.00,,,0.00,VWS V14.01,2013-02-07 10:22:00,
2013-02-07 05:24:00,26.4,22.5,30.38,ESE,112,0.0,0.0,85,0.00,,,0.00,VWS V14.01,2013-02-07 10:24:00,
2013-02-07 05:27:00,26.4,22.5,30.37,ESE,112,0.0,0.0,85,0.00,,,0.00,VWS V14.01,2013-02-07 10:27:00,
2013-02-07 05:29:00,26.4,22.5,30.37,ESE,112,0.0,0.0,85,0.00,,,0.00,VWS V14.01,2013-02-07 10:29:00,
2013-02-07 05:30:00,26.4,22.5,30.38,ESE,112,0.0,0.0,85,0.00,,,0.00,VWS V14.01,2013-02-07 10:30:00,
2013-02-07 05:34:00,26.4,22.5,30.38,ESE,112,0.0,0.0,85,0.00,,,0.00,VWS V14.01,2013-02-07 10:34:00,
2013-02-07 05:35:00,26.4,22.5,30.37,ESE,112,0.0,0.0,85,0.00,,,0.00,VWS V14.01,2013-02-07 10:35:00,
2013-02-07 05:39:00,26.4,22.5,30.37,ESE,112,0.0,0.0,85,0.00,,,0.00,VWS V14.01,2013-02-07 10:39:00,
2013-02-07 05:40:00,26.6,23.0,30.37,ESE,112,0.0,0.0,86,0.00,,,0.00,VWS V14.01,2013-02-07 10:40:00,
2013-02-07 05:42:00,26.6,23.0,30.37,ESE,112,0.0,0.0,86,0.00,,,0.00,VWS V14.01,2013-02-07 10:42:00,
2013-02-07 05:45:00,26.6,23.0,30.37,ESE,112,0.0,0.0,86,0.00,,,0.00,VWS V14.01,2013-02-07 10:45:00,
2013-02-07 05:46:00,26.6,23.0,30.37,ESE,112,0.0,0.0,86,0.00,,,0.00,VWS V14.01,2013-02-07 10:46:00,
2013-02-07 05:47:00,26.6,23.0,30.38,ESE,112,0.0,0.0,86,0.00,,,0.00,VWS V14.01,2013-02-07 10:47:00,
2013-02-07 05:50:00,26.7,23.1,30.38,ESE,112,0.0,0.0,86,0.00,,,0.00,VWS V14.01,2013-02-07 10:50:00,
2013-02-07 05:52:00,26.7,23.1,30.38,ESE,112,0.0,0.0,86,0.00,,,0.00,VWS V14.01,2013-02-07 10:52:00,
2013-02-07 05:54:00,26.7,23.1,30.38,ESE,112,0.0,0.0,86,0.00,,,0.00,VWS V14.01,2013-02-07 10:54:00,
2013-02-07 05:55:00,26.7,23.1,30.38,ESE,112,0.0,0.0,86,0.00,,,0.00,VWS V14.01,2013-02-07 10:55:00,
2013-02-07 05:57:00,26.7,23.1,30.38,ESE,112,0.0,0.0,86,0.00,,,0.00,VWS V14.01,2013-02-07 10:57:00,
2013-02-07 06:00:00,26.7,23.1,30.38,ESE,112,0.0,0.0,86,0.00,,,0.00,VWS V14.01,2013-02-07 11:00:00,
2013-02-07 06:03:00,26.7,23.1,30.38,ESE,112,0.0,0.0,86,0.00,,,0.00,VWS V14.01,2013-02-07 11:03:00,
2013-02-07 06:05:00,26.7,23.1,30.38,ESE,112,0.0,0.0,86,0.00,,,0.00,VWS V14.01,2013-02-07 11:05:00,
2013-02-07 06:06:00,26.7,23.1,30.38,ESE,112,0.0,0.0,86,0.00,,,0.00,VWS V14.01,2013-02-07 11:06:00,
2013-02-07 06:08:00,26.7,23.1,30.39,ESE,112,0.0,0.0,86,0.00,,,0.00,VWS V14.01,2013-02-07 11:08:00,
2013-02-07 06:09:00,26.7,23.1,30.39,ESE,112,0.0,0.0,86,0.00,,,0.00,VWS V14.01,2013-02-07 11:09:00,
2013-02-07 06:10:00,26.7,23.1,30.39,ESE,112,0.0,0.0,86,0.00,,,0.00,VWS V14.01,2013-02-07 11:10:00,
2013-02-07 06:11:00,26.7,23.1,30.39,ESE,112,0.0,0.0,86,0.00,,,0.00,VWS V14.01,2013-02-07 11:11:00,
2013-02-07 06:14:00,26.6,23.0,30.39,ESE,112,0.0,0.0,86,0.00,,,0.00,VWS V14.01,2013-02-07 11:14:00,
2013-02-07 06:15:00,26.6,23.0,30.39,ESE,112,0.0,0.0,86,0.00,,,0.00,VWS V14.01,2013-02-07 11:15:00,
2013-02-07 06:16:00,26.6,23.0,30.39,ESE,112,0.0,0.0,86,0.00,,,0.00,VWS V14.01,2013-02-07 11:16:00,
2013-02-07 06:19:00,26.7,23.1,30.38,ESE,112,0.0,0.0,86,0.00,,,0.00,VWS V14.01,2013-02-07 11:19:00,
2013-02-07 06:21:00,26.7,23.1,30.38,ESE,112,0.0,0.0,86,0.00,,,0.00,VWS V14.01,2013-02-07 11:21:00,
2013-02-07 06:24:00,26.7,23.1,30.39,ESE,112,0.0,0.0,86,0.00,,,0.00,VWS V14.01,2013-02-07 11:24:00,
2013-02-07 06:25:00,26.7,23.1,30.39,ESE,112,0.0,0.0,86,0.00,,,0.00,VWS V14.01,2013-02-07 11:25:00,
2013-02-07 06:26:00,26.7,23.1,30.39,ESE,112,0.0,0.0,86,0.00,,,0.00,VWS V14.01,2013-02-07 11:26:00,
2013-02-07 06:29:00,26.7,23.1,30.39,ESE,112,0.0,0.0,86,0.00,,,0.00,VWS V14.01,2013-02-07 11:29:00,
2013-02-07 06:31:00,26.9,23.3,30.39,ESE,112,0.0,0.0,86,0.00,,,0.00,VWS V14.01,2013-02-07 11:31:00,
2013-02-07 06:34:00,26.7,23.1,30.39,ESE,112,0.0,0.0,86,0.00,,,0.00,VWS V14.01,2013-02-07 11:34:00,
2013-02-07 06:36:00,26.7,23.1,30.39,ESE,112,0.0,0.0,86,0.00,,,0.00,VWS V14.01,2013-02-07 11:36:00,
2013-02-07 06:37:00,26.7,23.1,30.39,ESE,112,0.0,0.0,86,0.00,,,0.00,VWS V14.01,2013-02-07 11:37:00,
2013-02-07 06:40:00,26.9,23.3,30.39,ESE,112,0.0,0.0,86,0.00,,,0.00,VWS V14.01,2013-02-07 11:40:00,
2013-02-07 06:41:00,26.9,23.3,30.39,ESE,112,0.0,0.0,86,0.00,,,0.00,VWS V14.01,2013-02-07 11:41:00,
2013-02-07 06:42:00,26.9,23.3,30.39,ESE,112,0.0,0.0,86,0.00,,,0.00,VWS V14.01,2013-02-07 11:42:00,
2013-02-07 06:45:00,26.9,23.3,30.39,ESE,112,0.0,0.0,86,0.00,,,0.00,VWS V14.01,2013-02-07 11:45:00,
2013-02-07 06:47:00,26.9,23.3,30.39,ESE,112,0.0,0.0,86,0.00,,,0.00,VWS V14.01,2013-02-07 11:47:00,
2013-02-07 06:50:00,26.9,23.3,30.39,ESE,112,0.0,0.0,86,0.00,,,0.00,VWS V14.01,2013-02-07 11:50:00,
2013-02-07 06:51:00,26.9,23.3,30.39,ESE,112,0.0,0.0,86,0.00,,,0.00,VWS V14.01,2013-02-07 11:51:00,
2013-02-07 06:52:00,26.9,23.3,30.39,ESE,112,0.0,0.0,86,0.00,,,0.00,VWS V14.01,2013-02-07 11:52:00,
2013-02-07 06:54:00,26.9,23.3,30.39,ESE,112,0.0,0.0,86,0.00,,,0.00,VWS V14.01,2013-02-07 11:54:00,
2013-02-07 06:55:00,26.9,23.3,30.39,ESE,112,0.0,0.0,86,0.00,,,0.00,VWS V14.01,2013-02-07 11:55:00,
2013-02-07 06:56:00,26.9,23.3,30.39,ESE,112,0.0,0.0,86,0.00,,,0.00,VWS V14.01,2013-02-07 11:56:00,
2013-02-07 06:57:00,26.9,23.3,30.39,ESE,112,0.0,0.0,86,0.00,,,0.00,VWS V14.01,2013-02-07 11:57:00,
2013-02-07 06:59:00,26.9,23.3,30.39,ESE,112,0.0,0.0,86,0.00,,,0.00,VWS V14.01,2013-02-07 11:59:00,
2013-02-07 07:01:00,26.9,23.3,30.39,ESE,112,0.0,0.0,86,0.00,,,0.00,VWS V14.01,2013-02-07 12:01:00,
2013-02-07 07:03:00,26.9,23.3,30.39,ESE,112,0.0,0.0,86,0.00,,,0.00,VWS V14.01,2013-02-07 12:03:00,
2013-02-07 07:05:00,26.9,23.3,30.39,ESE,112,0.0,0.0,86,0.00,,,0.00,VWS V14.01,2013-02-07 12:05:00,
2013-02-07 07:07:00,27.1,23.5,30.39,ESE,112,0.0,0.0,86,0.00,,,0.00,VWS V14.01,2013-02-07 12:07:00,
2013-02-07 07:08:00,27.1,23.5,30.39,ESE,112,0.0,0.0,86,0.00,,,0.00,VWS V14.01,2013-02-07 12:08:00,
2013-02-07 07:10:00,27.1,23.5,30.39,ESE,112,0.0,0.0,86,0.00,,,0.00,VWS V14.01,2013-02-07 12:10:00,
2013-02-07 07:13:00,27.1,23.5,30.39,ESE,112,0.0,0.0,86,0.00,,,0.00,VWS V14.01,2013-02-07 12:13:00,
2013-02-07 07:15:00,27.1,23.5,30.39,ESE,112,0.0,0.0,86,0.00,,,0.00,VWS V14.01,2013-02-07 12:15:00,
2013-02-07 07:18:00,27.1,23.5,30.39,ESE,112,0.0,0.0,86,0.00,,,0.00,VWS V14.01,2013-02-07 12:18:00,
2013-02-07 07:19:00,27.1,23.5,30.39,ESE,112,0.0,0.0,86,0.00,,,0.00,VWS V14.01,2013-02-07 12:19:00,
2013-02-07 07:20:00,27.1,23.5,30.39,ESE,112,0.0,0.0,86,0.00,,,0.00,VWS V14.01,2013-02-07 12:20:00,
2013-02-07 07:24:00,27.1,23.5,30.40,ESE,112,0.0,0.0,86,0.00,,,0.00,VWS V14.01,2013-02-07 12:24:00,
2013-02-07 07:25:00,27.1,23.5,30.40,ESE,112,0.0,0.0,86,0.00,,,0.00,VWS V14.01,2013-02-07 12:25:00,
2013-02-07 07:26:00,27.1,23.5,30.40,ESE,112,0.0,0.0,86,0.00,,,0.00,VWS V14.01,2013-02-07 12:26:00,
2013-02-07 07:29:00,27.1,23.5,30.41,ESE,112,0.0,0.0,86,0.00,,,0.00,VWS V14.01,2013-02-07 12:29:00,
2013-02-07 07:30:00,27.1,23.5,30.41,ESE,112,0.0,0.0,86,0.00,,,0.00,VWS V14.01,2013-02-07 12:30:00,
2013-02-07 07:31:00,27.1,23.5,30.41,ESE,112,0.0,0.0,86,0.00,,,0.00,VWS V14.01,2013-02-07 12:31:00,
2013-02-07 07:34:00,27.3,23.7,30.41,ESE,112,0.0,0.0,86,0.00,,,0.00,VWS V14.01,2013-02-07 12:34:00,
2013-02-07 07:36:00,27.3,23.7,30.41,ESE,112,0.0,0.0,86,0.00,,,0.00,VWS V14.01,2013-02-07 12:36:00,
2013-02-07 07:39:00,27.3,23.7,30.41,ESE,112,0.0,0.0,86,0.00,,,0.00,VWS V14.01,2013-02-07 12:39:00,
2013-02-07 07:40:00,27.5,23.9,39.22,North,0,0.0,0.0,86,0.00,,,0.00,VWS V14.01,2013-02-07 12:40:00,
2013-02-07 07:41:00,27.5,23.9,30.41,ESE,112,0.0,0.0,86,0.00,,,0.00,VWS V14.01,2013-02-07 12:41:00,
2013-02-07 07:42:00,27.6,24.0,30.41,ESE,112,0.0,0.0,86,0.00,,,0.00,VWS V14.01,2013-02-07 12:42:00,
2013-02-07 07:44:00,27.6,24.0,30.40,ESE,112,0.0,0.0,86,0.00,,,0.00,VWS V14.01,2013-02-07 12:44:00,
2013-02-07 07:46:00,27.8,24.2,30.41,ESE,112,0.0,0.0,86,0.00,,,0.00,VWS V14.01,2013-02-07 12:46:00,
2013-02-07 07:50:00,27.5,23.9,39.22,North,0,0.0,0.0,86,0.00,,,0.00,VWS V14.01,2013-02-07 12:50:00,
2013-02-07 07:51:00,28.2,24.6,30.41,ESE,112,0.0,0.0,86,0.00,,,43.52,VWS V14.01,2013-02-07 12:51:00,
2013-02-07 07:52:00,28.2,24.6,30.41,ESE,112,0.0,0.0,86,0.00,,,43.52,VWS V14.01,2013-02-07 12:52:00,
2013-02-07 07:55:00,28.5,24.9,30.41,East,90,0.0,0.0,86,0.00,,,43.52,VWS V14.01,2013-02-07 12:55:00,
2013-02-07 07:57:00,28.7,25.0,30.41,East,90,0.0,0.0,86,0.00,,,43.52,VWS V14.01,2013-02-07 12:57:00,
2013-02-07 08:01:00,28.9,25.2,30.41,East,90,0.0,0.0,86,0.00,,,43.52,VWS V14.01,2013-02-07 13:01:00,
2013-02-07 08:02:00,29.1,25.4,30.41,East,90,0.0,0.0,86,0.00,,,43.52,VWS V14.01,2013-02-07 13:02:00,
2013-02-07 08:03:00,29.1,25.4,30.41,East,90,0.0,0.0,86,0.00,,,43.52,VWS V14.01,2013-02-07 13:03:00,
2013-02-07 08:07:00,29.6,25.9,30.41,East,90,0.0,0.0,86,0.00,,,43.52,VWS V14.01,2013-02-07 13:07:00,
2013-02-07 08:08:00,29.8,26.1,30.41,East,90,0.0,0.0,86,0.00,,,43.52,VWS V14.01,2013-02-07 13:08:00,
2013-02-07 08:13:00,30.2,26.5,30.42,East,90,0.0,0.0,86,0.00,,,43.52,VWS V14.01,2013-02-07 13:13:00,
2013-02-07 08:14:00,30.3,26.6,30.41,East,90,0.0,0.0,86,0.00,,,43.52,VWS V14.01,2013-02-07 13:14:00,
2013-02-07 08:18:00,30.7,27.0,30.42,East,90,0.0,0.0,86,0.00,,,43.52,VWS V14.01,2013-02-07 13:18:00,
2013-02-07 08:19:00,30.7,27.0,30.42,East,90,0.0,0.0,86,0.00,,,43.52,VWS V14.01,2013-02-07 13:19:00,
2013-02-07 08:21:00,31.1,27.4,30.42,East,90,0.0,0.0,86,0.00,,,43.52,VWS V14.01,2013-02-07 13:21:00,
2013-02-07 08:24:00,31.1,27.1,30.42,East,90,0.0,0.0,85,0.00,,,43.52,VWS V14.01,2013-02-07 13:24:00,
2013-02-07 08:26:00,31.6,27.6,30.42,East,90,0.0,0.0,85,0.00,,,43.52,VWS V14.01,2013-02-07 13:26:00,
2013-02-07 08:29:00,31.8,27.5,30.42,East,90,0.0,0.0,84,0.00,,,43.52,VWS V14.01,2013-02-07 13:29:00,
2013-02-07 08:30:00,31.8,27.5,30.42,East,90,0.0,0.0,84,0.00,,,43.52,VWS V14.01,2013-02-07 13:30:00,
2013-02-07 08:31:00,32.1,27.8,30.42,East,90,0.0,0.0,84,0.00,,,43.52,VWS V14.01,2013-02-07 13:31:00,
2013-02-07 08:35:00,32.5,28.2,30.42,East,90,0.0,0.0,84,0.00,,,43.52,VWS V14.01,2013-02-07 13:35:00,
2013-02-07 08:36:00,32.7,28.4,30.43,East,90,0.0,0.0,84,0.00,,,43.52,VWS V14.01,2013-02-07 13:36:00,
2013-02-07 08:40:00,33.0,28.7,30.42,ENE,68,0.0,0.0,84,0.00,,,43.52,VWS V14.01,2013-02-07 13:40:00,
2013-02-07 08:41:00,33.2,28.6,30.43,ENE,68,0.0,0.0,83,0.00,,,43.52,VWS V14.01,2013-02-07 13:41:00,
2013-02-07 08:45:00,33.6,28.7,30.43,East,90,0.0,0.0,82,0.00,,,43.52,VWS V14.01,2013-02-07 13:45:00,
2013-02-07 08:46:00,33.6,28.7,30.43,East,90,0.0,0.0,82,0.00,,,43.52,VWS V14.01,2013-02-07 13:46:00,
2013-02-07 08:51:00,34.3,29.1,30.43,ENE,68,0.0,0.0,81,0.00,,,43.52,VWS V14.01,2013-02-07 13:51:00,
2013-02-07 08:52:00,34.3,29.1,30.43,ENE,68,0.0,0.0,81,0.00,,,43.52,VWS V14.01,2013-02-07 13:52:00,
2013-02-07 08:57:00,34.5,29.0,30.42,ENE,68,0.0,0.0,80,0.00,,,43.52,VWS V14.01,2013-02-07 13:57:00,
2013-02-07 09:02:00,34.8,28.6,30.42,ENE,68,0.0,0.0,78,0.00,,,43.52,VWS V14.01,2013-02-07 14:02:00,
2013-02-07 09:03:00,34.8,28.6,30.42,ENE,68,0.0,0.0,78,0.00,,,43.52,VWS V14.01,2013-02-07 14:03:00,
2013-02-07 09:07:00,35.2,28.7,30.42,ESE,112,0.0,0.0,77,0.00,,,43.52,VWS V14.01,2013-02-07 14:07:00,
2013-02-07 09:08:00,35.2,28.7,30.42,ESE,112,0.0,0.0,77,0.00,,,43.52,VWS V14.01,2013-02-07 14:08:00,
2013-02-07 09:11:00,35.4,28.9,30.42,NE,45,0.0,0.0,77,0.00,,,43.52,VWS V14.01,2013-02-07 14:11:00,
2013-02-07 09:12:00,35.4,28.9,30.43,East,90,0.0,0.0,77,0.00,,,43.52,VWS V14.01,2013-02-07 14:12:00,
2013-02-07 09:13:00,35.4,28.9,30.43,East,90,0.0,0.0,77,0.00,,,43.52,VWS V14.01,2013-02-07 14:13:00,
2013-02-07 09:14:00,35.7,29.2,30.42,East,90,0.0,0.0,77,0.00,,,43.52,VWS V14.01,2013-02-07 14:14:00,
2013-02-07 09:16:00,35.7,28.9,30.43,ENE,68,0.0,0.0,76,0.00,,,43.52,VWS V14.01,2013-02-07 14:16:00,
2013-02-07 09:17:00,35.9,29.1,30.43,ENE,68,0.0,0.0,76,0.00,,,43.52,VWS V14.01,2013-02-07 14:17:00,
2013-02-07 09:18:00,35.9,29.1,30.42,ENE,68,0.0,0.0,76,0.00,,,43.52,VWS V14.01,2013-02-07 14:18:00,
2013-02-07 09:19:00,36.1,29.3,30.42,ENE,68,0.0,0.0,76,0.00,,,43.52,VWS V14.01,2013-02-07 14:19:00,
2013-02-07 09:21:00,36.3,29.5,30.43,ENE,68,0.0,0.0,76,0.00,,,43.52,VWS V14.01,2013-02-07 14:21:00,
2013-02-07 09:23:00,36.3,29.1,30.43,ENE,68,0.0,0.0,75,0.00,,,43.52,VWS V14.01,2013-02-07 14:23:00,
2013-02-07 09:24:00,36.3,29.1,30.43,ENE,68,0.0,0.0,75,0.00,,,43.52,VWS V14.01,2013-02-07 14:24:00,
2013-02-07 09:28:00,36.6,29.1,30.43,NE,45,0.0,0.0,74,0.00,,,43.52,VWS V14.01,2013-02-07 14:28:00,
2013-02-07 09:29:00,36.8,29.3,30.42,NE,45,0.0,0.0,74,0.00,,,43.52,VWS V14.01,2013-02-07 14:29:00,
2013-02-07 09:30:00,37.0,29.5,30.43,NE,45,0.0,0.0,74,0.00,,,43.52,VWS V14.01,2013-02-07 14:30:00,
2013-02-07 09:33:00,37.2,29.4,30.43,NE,45,0.0,0.0,73,0.00,,,43.52,VWS V14.01,2013-02-07 14:33:00,
2013-02-07 09:34:00,37.2,29.4,30.42,East,90,0.0,0.0,73,0.00,,,43.52,VWS V14.01,2013-02-07 14:34:00,
2013-02-07 09:35:00,37.2,29.4,30.42,NE,45,0.0,0.0,73,0.00,,,43.52,VWS V14.01,2013-02-07 14:35:00,
2013-02-07 09:39:00,37.2,28.7,30.42,ENE,68,0.0,0.0,71,0.00,,,43.52,VWS V14.01,2013-02-07 14:39:00,
2013-02-07 09:40:00,37.4,28.9,30.42,NE,45,5.1,5.1,71,0.00,,,43.52,VWS V14.01,2013-02-07 14:40:00,
2013-02-07 09:41:00,37.4,28.9,30.42,NE,45,5.1,5.1,71,0.00,,,43.52,VWS V14.01,2013-02-07 14:41:00,
2013-02-07 09:44:00,37.5,28.6,30.42,ENE,68,4.6,6.7,70,0.00,,,43.52,VWS V14.01,2013-02-07 14:44:00,
2013-02-07 09:45:00,37.4,28.5,30.42,ENE,68,0.0,6.7,70,0.00,,,43.52,VWS V14.01,2013-02-07 14:45:00,
2013-02-07 09:46:00,37.4,28.5,30.42,ESE,112,0.0,6.7,70,0.00,,,43.52,VWS V14.01,2013-02-07 14:46:00,
2013-02-07 09:47:00,37.4,28.5,30.42,ESE,112,0.0,6.7,70,0.00,,,43.52,VWS V14.01,2013-02-07 14:47:00,
2013-02-07 09:49:00,37.5,28.6,30.42,SE,135,0.0,8.5,70,0.00,,,43.52,VWS V14.01,2013-02-07 14:49:00,
2013-02-07 09:50:00,37.5,28.6,30.42,SE,135,0.0,8.5,70,0.00,,,43.52,VWS V14.01,2013-02-07 14:50:00,
2013-02-07 09:51:00,37.7,28.8,30.42,North,0,0.0,0.0,70,0.00,,,43.52,VWS V14.01,2013-02-07 14:51:00,
2013-02-07 09:52:00,37.7,28.8,30.42,North,0,0.0,0.0,70,0.00,,,43.52,VWS V14.01,2013-02-07 14:52:00,
2013-02-07 09:54:00,37.7,28.5,30.42,NE,45,2.2,6.0,69,0.00,,,43.52,VWS V14.01,2013-02-07 14:54:00,
2013-02-07 09:55:00,37.7,28.5,30.42,NE,45,2.2,6.0,69,0.00,,,43.52,VWS V14.01,2013-02-07 14:55:00,
2013-02-07 09:57:00,37.9,28.3,30.42,ENE,68,0.0,6.0,68,0.00,,,43.52,VWS V14.01,2013-02-07 14:57:00,
2013-02-07 10:00:00,37.9,28.3,30.42,NE,45,9.6,9.6,68,0.00,,,43.52,VWS V14.01,2013-02-07 15:00:00,
2013-02-07 10:01:00,37.9,27.9,30.41,ESE,112,1.5,1.5,67,0.00,,,43.52,VWS V14.01,2013-02-07 15:01:00,
2013-02-07 10:02:00,37.9,27.9,30.41,ESE,112,1.5,1.5,67,0.00,,,43.52,VWS V14.01,2013-02-07 15:02:00,
2013-02-07 10:03:00,38.1,28.1,30.42,NE,45,0.0,1.5,67,0.00,,,43.52,VWS V14.01,2013-02-07 15:03:00,
2013-02-07 10:06:00,38.1,28.5,30.42,ENE,68,4.0,4.0,68,0.00,,,43.52,VWS V14.01,2013-02-07 15:06:00,
2013-02-07 10:07:00,38.1,28.1,30.42,ENE,68,0.0,9.3,67,0.00,,,43.52,VWS V14.01,2013-02-07 15:07:00,
2013-02-07 10:08:00,38.1,28.1,30.42,ENE,68,5.3,9.3,67,0.00,,,43.52,VWS V14.01,2013-02-07 15:08:00,
2013-02-07 10:11:00,38.1,28.1,30.42,NE,45,0.0,0.0,67,0.00,,,43.52,VWS V14.01,2013-02-07 15:11:00,
2013-02-07 10:12:00,38.1,28.1,30.42,NE,45,0.0,0.0,67,0.00,,,43.52,VWS V14.01,2013-02-07 15:12:00,
2013-02-07 10:14:00,38.1,28.1,30.42,NE,45,0.0,0.0,67,0.00,,,43.52,VWS V14.01,2013-02-07 15:14:00,
2013-02-07 10:17:00,38.3,28.3,30.42,ENE,68,8.0,8.0,67,0.00,,,43.52,VWS V14.01,2013-02-07 15:17:00,
2013-02-07 10:18:00,38.3,28.3,30.42,ENE,68,8.0,8.0,67,0.00,,,43.52,VWS V14.01,2013-02-07 15:18:00,
2013-02-07 10:20:00,38.3,28.0,30.42,NE,45,5.5,8.0,66,0.00,,,43.52,VWS V14.01,2013-02-07 15:20:00,
2013-02-07 10:22:00,38.3,28.0,30.42,East,90,0.0,0.0,66,0.00,,,43.52,VWS V14.01,2013-02-07 15:22:00,
2013-02-07 10:23:00,38.3,28.0,30.42,East,90,0.0,0.0,66,0.00,,,43.52,VWS V14.01,2013-02-07 15:23:00,
2013-02-07 10:25:00,38.6,28.6,30.42,East,90,0.0,0.0,67,0.00,,,43.52,VWS V14.01,2013-02-07 15:25:00,
2013-02-07 10:28:00,38.8,28.8,30.42,NE,45,0.0,0.0,67,0.00,,,43.52,VWS V14.01,2013-02-07 15:28:00,
2013-02-07 10:32:00,39.3,29.3,30.42,East,90,0.2,0.2,67,0.00,,,43.52,VWS V14.01,2013-02-07 15:32:00,
2013-02-07 10:33:00,39.3,28.9,30.42,NE,45,0.0,0.2,66,0.00,,,43.52,VWS V14.01,2013-02-07 15:33:00,
2013-02-07 10:34:00,39.3,28.9,30.42,NE,45,0.0,0.2,66,0.00,,,43.52,VWS V14.01,2013-02-07 15:34:00,
2013-02-07 10:37:00,39.7,28.9,30.42,ESE,112,0.0,0.2,65,0.00,,,43.52,VWS V14.01,2013-02-07 15:37:00,
2013-02-07 10:38:00,39.7,28.9,30.42,ESE,112,0.0,0.2,65,0.00,,,43.52,VWS V14.01,2013-02-07 15:38:00,
2013-02-07 10:39:00,39.9,29.5,30.42,SE,135,0.0,0.2,66,0.00,,,43.52,VWS V14.01,2013-02-07 15:39:00,
2013-02-07 10:45:00,39.9,29.5,30.42,ESE,112,2.2,2.2,66,16.43,,,59.96,VWS V14.01,2013-02-07 15:45:00,
2013-02-07 10:46:00,39.9,28.7,30.42,NE,45,4.9,4.9,64,0.00,,,43.52,VWS V14.01,2013-02-07 15:46:00,
2013-02-07 10:50:00,39.9,28.7,30.41,ENE,68,0.0,6.9,64,0.00,,,43.52,VWS V14.01,2013-02-07 15:50:00,
2013-02-07 10:51:00,39.9,28.7,30.41,ENE,68,0.0,6.9,64,0.00,,,43.52,VWS V14.01,2013-02-07 15:51:00,
2013-02-07 10:56:00,40.2,28.6,30.41,NE,45,2.6,6.0,63,0.00,,,43.52,VWS V14.01,2013-02-07 15:56:00,
2013-02-07 10:57:00,40.2,28.6,30.41,East,90,1.7,6.0,63,0.00,,,43.52,VWS V14.01,2013-02-07 15:57:00,
2013-02-07 11:00:00,40.6,29.0,30.41,ESE,112,0.0,6.0,63,0.00,,,43.52,VWS V14.01,2013-02-07 16:00:00,
2013-02-07 11:01:00,40.8,29.2,30.41,SE,135,0.0,6.0,63,0.00,,,43.52,VWS V14.01,2013-02-07 16:01:00,
2013-02-07 11:02:00,40.8,29.2,30.41,SE,135,0.0,0.0,63,0.00,,,43.52,VWS V14.01,2013-02-07 16:02:00,
2013-02-07 11:03:00,40.8,29.6,30.41,SE,135,0.0,0.0,64,0.00,,,43.52,VWS V14.01,2013-02-07 16:03:00,
2013-02-07 11:05:00,41.3,29.7,30.41,NE,45,0.0,0.0,63,0.00,,,43.52,VWS V14.01,2013-02-07 16:05:00,
2013-02-07 11:07:00,41.3,29.3,30.41,ENE,68,0.0,0.0,62,0.00,,,43.52,VWS V14.01,2013-02-07 16:07:00,
2013-02-07 11:09:00,41.5,29.5,30.41,NE,45,0.0,0.0,62,0.00,,,43.52,VWS V14.01,2013-02-07 16:09:00,
2013-02-07 11:10:00,41.5,29.5,30.41,NE,45,0.0,0.0,62,0.00,,,43.52,VWS V14.01,2013-02-07 16:10:00,
2013-02-07 11:12:00,41.7,29.7,30.41,SE,135,2.6,2.6,62,0.00,,,43.52,VWS V14.01,2013-02-07 16:12:00,
2013-02-07 11:13:00,41.7,29.7,30.40,SSE,158,0.0,2.6,62,0.00,,,43.52,VWS V14.01,2013-02-07 16:13:00,
2013-02-07 11:14:00,41.9,29.9,30.41,ENE,68,0.0,2.6,62,0.00,,,43.52,VWS V14.01,2013-02-07 16:14:00,
2013-02-07 11:17:00,42.0,29.9,30.40,East,90,0.0,2.6,62,0.00,,,43.52,VWS V14.01,2013-02-07 16:17:00,
2013-02-07 11:18:00,42.0,29.5,30.40,NE,45,4.0,7.6,61,0.00,,,43.52,VWS V14.01,2013-02-07 16:18:00,
2013-02-07 11:19:00,42.0,29.5,30.40,NE,45,4.0,7.6,61,0.00,,,43.52,VWS V14.01,2013-02-07 16:19:00,
2013-02-07 11:22:00,42.4,29.9,30.40,ENE,68,0.8,0.8,61,0.00,,,43.52,VWS V14.01,2013-02-07 16:22:00,
2013-02-07 11:24:00,42.4,29.5,30.40,ESE,112,0.0,0.8,60,0.00,,,43.52,VWS V14.01,2013-02-07 16:24:00,
2013-02-07 11:25:00,42.4,29.9,30.40,ESE,112,0.0,0.8,61,0.00,,,43.52,VWS V14.01,2013-02-07 16:25:00,
2013-02-07 11:28:00,42.4,29.5,30.40,East,90,0.0,0.8,60,0.00,,,43.52,VWS V14.01,2013-02-07 16:28:00,
2013-02-07 11:29:00,42.4,29.5,30.40,ESE,112,0.0,0.8,60,0.00,,,43.52,VWS V14.01,2013-02-07 16:29:00,
2013-02-07 11:31:00,42.4,29.9,30.40,ENE,68,4.6,4.6,61,0.00,,,43.52,VWS V14.01,2013-02-07 16:31:00,
2013-02-07 11:34:00,42.6,29.7,30.40,SE,135,4.2,4.2,60,0.00,,,43.52,VWS V14.01,2013-02-07 16:34:00,
2013-02-07 11:35:00,42.6,29.7,30.40,ENE,68,0.0,4.2,60,0.00,,,43.52,VWS V14.01,2013-02-07 16:35:00,
2013-02-07 11:36:00,42.6,29.7,30.40,ESE,112,0.0,4.2,60,0.00,,,43.52,VWS V14.01,2013-02-07 16:36:00,
2013-02-07 11:39:00,42.8,29.5,30.40,NE,45,0.0,7.8,59,0.00,,,43.52,VWS V14.01,2013-02-07 16:39:00,
2013-02-07 11:40:00,42.6,29.3,30.39,ENE,68,0.0,7.8,59,0.00,,,43.52,VWS V14.01,2013-02-07 16:40:00,
2013-02-07 11:41:00,42.6,29.3,30.39,ENE,68,0.0,7.8,59,0.00,,,43.52,VWS V14.01,2013-02-07 16:41:00,
2013-02-07 11:42:00,42.6,29.3,30.39,ENE,68,0.0,0.0,59,0.00,,,43.52,VWS V14.01,2013-02-07 16:42:00,
2013-02-07 11:44:00,42.6,29.3,30.39,NE,45,0.0,0.0,59,0.00,,,43.52,VWS V14.01,2013-02-07 16:44:00,
2013-02-07 11:46:00,42.6,29.3,30.39,NE,45,0.0,0.0,59,0.00,,,43.52,VWS V14.01,2013-02-07 16:46:00,
2013-02-07 11:47:00,42.9,29.6,30.39,ENE,68,0.0,0.0,59,0.00,,,43.52,VWS V14.01,2013-02-07 16:47:00,
2013-02-07 11:50:00,42.9,29.6,30.39,SE,135,0.0,0.0,59,0.00,,,43.52,VWS V14.01,2013-02-07 16:50:00,
2013-02-07 11:51:00,43.1,29.8,30.39,NE,45,0.0,0.0,59,0.00,,,43.52,VWS V14.01,2013-02-07 16:51:00,
2013-02-07 11:52:00,43.3,30.0,30.39,NE,45,0.0,0.0,59,0.00,,,43.52,VWS V14.01,2013-02-07 16:52:00,
2013-02-07 11:53:00,43.3,30.0,30.38,NE,45,0.0,0.0,59,0.00,,,43.52,VWS V14.01,2013-02-07 16:53:00,
2013-02-07 11:55:00,43.5,30.1,30.38,ESE,112,0.0,1.5,59,0.00,,,43.52,VWS V14.01,2013-02-07 16:55:00,
2013-02-07 11:56:00,43.5,30.1,30.38,ESE,112,0.0,1.5,59,0.00,,,43.52,VWS V14.01,2013-02-07 16:56:00,
2013-02-07 11:58:00,43.7,30.7,30.38,ENE,68,0.0,1.5,60,0.00,,,43.52,VWS V14.01,2013-02-07 16:58:00,
2013-02-07 12:00:00,43.7,30.3,30.38,NE,45,0.0,1.5,59,0.00,,,43.52,VWS V14.01,2013-02-07 17:00:00,
2013-02-07 12:01:00,43.7,30.3,30.38,NE,45,0.0,1.5,59,0.00,,,43.52,VWS V14.01,2013-02-07 17:01:00,
2013-02-07 12:03:00,43.7,30.3,30.38,NNW,338,0.0,0.0,59,0.00,,,43.52,VWS V14.01,2013-02-07 17:03:00,
2013-02-07 12:06:00,43.8,30.4,30.37,NE,45,0.0,0.0,59,0.00,,,43.52,VWS V14.01,2013-02-07 17:06:00,
2013-02-07 12:07:00,43.8,30.4,30.37,ENE,68,0.0,0.0,59,0.00,,,43.52,VWS V14.01,2013-02-07 17:07:00,
2013-02-07 12:08:00,43.8,30.4,30.37,ESE,112,0.0,0.0,59,0.00,,,43.52,VWS V14.01,2013-02-07 17:08:00,
2013-02-07 12:11:00,43.8,30.4,30.37,East,90,0.0,0.0,59,0.00,,,43.52,VWS V14.01,2013-02-07 17:11:00,
2013-02-07 12:13:00,43.8,30.4,30.36,ESE,112,0.0,0.0,59,0.00,,,43.52,VWS V14.01,2013-02-07 17:13:00,
2013-02-07 12:14:00,43.7,30.3,30.36,ENE,68,0.0,0.0,59,0.00,,,43.52,VWS V14.01,2013-02-07 17:14:00,
2013-02-07 12:17:00,43.7,30.3,30.36,NE,45,1.5,3.3,59,0.00,,,43.52,VWS V14.01,2013-02-07 17:17:00,
2013-02-07 12:19:00,43.7,30.3,30.36,ENE,68,0.0,3.3,59,0.00,,,43.52,VWS V14.01,2013-02-07 17:19:00,
2013-02-07 12:21:00,43.7,30.3,30.36,NE,45,0.0,3.3,59,0.00,,,43.52,VWS V14.01,2013-02-07 17:21:00,
2013-02-07 12:22:00,43.8,30.4,30.36,NE,45,4.4,4.4,59,0.00,,,43.52,VWS V14.01,2013-02-07 17:22:00,
2013-02-07 12:24:00,43.7,30.3,30.36,ENE,68,0.0,5.1,59,0.00,,,43.52,VWS V14.01,2013-02-07 17:24:00,
2013-02-07 12:26:00,43.8,30.4,30.36,ENE,68,0.0,5.1,59,0.00,,,43.52,VWS V14.01,2013-02-07 17:26:00,
2013-02-07 12:28:00,43.7,30.3,30.36,East,90,0.0,5.1,59,0.00,,,43.52,VWS V14.01,2013-02-07 17:28:00,
2013-02-07 12:29:00,43.7,30.3,30.36,NE,45,0.0,5.1,59,0.00,,,43.52,VWS V14.01,2013-02-07 17:29:00,
2013-02-07 12:32:00,43.7,30.3,30.35,SE,135,0.0,0.0,59,0.00,,,43.52,VWS V14.01,2013-02-07 17:32:00,
2013-02-07 12:33:00,44.0,31.0,30.35,SE,135,2.4,2.4,60,0.00,,,43.52,VWS V14.01,2013-02-07 17:33:00,
2013-02-07 12:35:00,44.2,31.2,30.35,SE,135,2.4,2.4,60,0.00,,,43.52,VWS V14.01,2013-02-07 17:35:00,
2013-02-07 12:37:00,44.4,31.4,30.35,SE,135,0.0,2.4,60,0.00,,,43.52,VWS V14.01,2013-02-07 17:37:00,
2013-02-07 12:39:00,44.7,31.7,30.35,ENE,68,0.0,2.4,60,0.00,,,43.52,VWS V14.01,2013-02-07 17:39:00,
2013-02-07 12:41:00,44.7,31.3,30.35,ENE,68,0.0,4.2,59,0.00,,,43.52,VWS V14.01,2013-02-07 17:41:00,
2013-02-07 12:42:00,44.9,31.5,30.35,ENE,68,0.0,0.0,59,0.00,,,43.52,VWS V14.01,2013-02-07 17:42:00,
2013-02-07 12:44:00,44.9,31.5,30.35,East,90,0.0,0.0,59,0.00,,,43.52,VWS V14.01,2013-02-07 17:44:00,
2013-02-07 12:45:00,44.9,31.5,30.35,NE,45,2.9,2.9,59,0.00,,,43.52,VWS V14.01,2013-02-07 17:45:00,
2013-02-07 12:46:00,44.9,31.5,30.35,NE,45,2.9,2.9,59,0.00,,,43.52,VWS V14.01,2013-02-07 17:46:00,
2013-02-07 12:47:00,45.1,31.6,30.35,SE,135,2.9,2.9,59,0.00,,,43.52,VWS V14.01,2013-02-07 17:47:00,
2013-02-07 12:49:00,45.1,31.6,30.35,ESE,112,0.0,2.9,59,0.00,,,43.52,VWS V14.01,2013-02-07 17:49:00,
2013-02-07 12:51:00,45.1,31.6,30.35,East,90,0.0,2.9,59,0.00,,,43.52,VWS V14.01,2013-02-07 17:51:00,
2013-02-07 12:52:00,45.3,31.4,30.34,ESE,112,0.0,0.0,58,0.00,,,43.52,VWS V14.01,2013-02-07 17:52:00,
2013-02-07 12:54:00,45.5,32.0,30.35,ESE,112,0.0,0.0,59,0.00,,,43.52,VWS V14.01,2013-02-07 17:54:00,
2013-02-07 12:56:00,45.6,32.1,30.35,ENE,68,0.0,0.0,59,0.00,,,43.52,VWS V14.01,2013-02-07 17:56:00,
2013-02-07 12:58:00,46.0,32.1,30.35,ESE,112,0.0,0.0,58,0.00,,,43.52,VWS V14.01,2013-02-07 17:58:00,
2013-02-07 13:00:00,46.2,32.2,30.35,NE,45,0.0,0.0,58,0.00,,,43.52,VWS V14.01,2013-02-07 18:00:00,
2013-02-07 13:01:00,46.0,31.6,30.35,ESE,112,4.4,4.4,57,0.00,,,43.52,VWS V14.01,2013-02-07 18:01:00,
2013-02-07 13:03:00,46.0,31.6,30.34,NE,45,0.0,0.0,57,0.00,,,43.52,VWS V14.01,2013-02-07 18:03:00,
2013-02-07 13:05:00,46.0,31.6,30.34,NE,45,6.2,6.2,57,0.00,,,43.52,VWS V14.01,2013-02-07 18:05:00,
2013-02-07 13:06:00,46.0,31.6,30.34,NE,45,6.2,6.2,57,0.00,,,43.52,VWS V14.01,2013-02-07 18:06:00,
2013-02-07 13:08:00,46.0,31.2,30.34,NE,45,0.0,6.2,56,0.00,,,43.52,VWS V14.01,2013-02-07 18:08:00,
2013-02-07 13:10:00,46.0,31.2,30.34,SE,135,0.0,6.2,56,0.00,,,43.52,VWS V14.01,2013-02-07 18:10:00,
2013-02-07 13:12:00,45.6,31.3,30.33,SE,135,0.0,0.0,57,0.00,,,43.52,VWS V14.01,2013-02-07 18:12:00,
2013-02-07 13:14:00,46.0,32.1,30.34,SE,135,0.0,0.0,58,0.00,,,43.52,VWS V14.01,2013-02-07 18:14:00,
2013-02-07 13:16:00,46.0,31.6,30.33,ESE,112,0.0,0.0,57,0.00,,,43.52,VWS V14.01,2013-02-07 18:16:00,
2013-02-07 13:18:00,46.2,32.2,30.33,East,90,0.0,0.0,58,0.00,,,43.52,VWS V14.01,2013-02-07 18:18:00,
2013-02-07 13:19:00,46.2,31.8,30.33,ENE,68,0.0,0.0,57,0.00,,,43.52,VWS V14.01,2013-02-07 18:19:00,
2013-02-07 13:21:00,46.2,31.4,30.33,ENE,68,0.0,0.0,56,0.00,,,43.52,VWS V14.01,2013-02-07 18:21:00,
2013-02-07 13:23:00,46.2,31.8,30.33,SSE,158,0.0,4.2,57,0.00,,,43.52,VWS V14.01,2013-02-07 18:23:00,
2013-02-07 13:24:00,46.5,32.1,30.33,SE,135,0.0,4.2,57,0.00,,,43.52,VWS V14.01,2013-02-07 18:24:00,
2013-02-07 13:26:00,46.5,32.1,30.33,SE,135,0.0,4.2,57,0.00,,,43.52,VWS V14.01,2013-02-07 18:26:00,
2013-02-07 13:27:00,46.5,32.1,30.33,NE,45,3.3,4.2,57,0.00,,,43.52,VWS V14.01,2013-02-07 18:27:00,
2013-02-07 13:29:00,46.5,31.7,30.32,NE,45,0.0,4.2,56,0.00,,,43.52,VWS V14.01,2013-02-07 18:29:00,
2013-02-07 13:30:00,46.5,31.7,30.32,NE,45,0.0,4.2,56,0.00,,,43.52,VWS V14.01,2013-02-07 18:30:00,
2013-02-07 13:31:00,46.2,31.4,30.32,East,90,0.0,0.0,56,0.00,,,43.52,VWS V14.01,2013-02-07 18:31:00,
2013-02-07 13:33:00,46.2,31.4,30.32,East,90,0.0,0.0,56,0.00,,,43.52,VWS V14.01,2013-02-07 18:33:00,
2013-02-07 13:34:00,46.2,31.4,30.32,NE,45,0.0,0.0,56,0.00,,,43.52,VWS V14.01,2013-02-07 18:34:00,
2013-02-07 13:35:00,46.2,31.4,30.32,North,0,0.0,0.0,56,0.00,,,43.52,VWS V14.01,2013-02-07 18:35:00,
2013-02-07 13:37:00,46.0,31.2,30.32,ENE,68,0.0,0.0,56,0.00,,,43.52,VWS V14.01,2013-02-07 18:37:00,
2013-02-07 13:38:00,46.0,31.2,30.32,ENE,68,0.0,0.0,56,0.00,,,43.52,VWS V14.01,2013-02-07 18:38:00,
2013-02-07 13:39:00,45.8,31.0,30.31,ENE,68,1.5,1.5,56,0.00,,,43.52,VWS V14.01,2013-02-07 18:39:00,
2013-02-07 13:40:00,45.8,31.0,30.31,ENE,68,1.5,1.5,56,0.00,,,43.52,VWS V14.01,2013-02-07 18:40:00,
2013-02-07 13:43:00,45.6,30.8,30.32,NE,45,7.8,7.8,56,0.00,,,43.52,VWS V14.01,2013-02-07 18:43:00,
2013-02-07 13:45:00,45.5,30.7,30.31,ENE,68,0.0,7.8,56,0.00,,,43.52,VWS V14.01,2013-02-07 18:45:00,
2013-02-07 13:49:00,45.5,31.2,30.31,NE,45,0.0,7.8,57,0.00,,,43.52,VWS V14.01,2013-02-07 18:49:00,
2013-02-07 13:50:00,45.5,31.2,30.31,ENE,68,3.8,7.8,57,0.00,,,43.52,VWS V14.01,2013-02-07 18:50:00,
2013-02-07 13:51:00,45.5,30.7,30.31,ESE,112,0.0,7.8,56,0.00,,,43.52,VWS V14.01,2013-02-07 18:51:00,
2013-02-07 13:55:00,45.5,31.2,30.31,ESE,112,0.0,0.0,57,0.00,,,43.52,VWS V14.01,2013-02-07 18:55:00,
2013-02-07 13:56:00,45.5,31.2,30.30,ESE,112,0.0,0.0,57,0.00,,,43.52,VWS V14.01,2013-02-07 18:56:00,
2013-02-07 13:57:00,45.6,31.7,30.30,ESE,112,0.0,0.0,58,0.00,,,43.52,VWS V14.01,2013-02-07 18:57:00,
2013-02-07 14:00:00,46.2,32.2,30.30,ESE,112,0.0,0.0,58,0.00,,,43.52,VWS V14.01,2013-02-07 19:00:00,
2013-02-07 14:01:00,46.2,32.2,30.30,ESE,112,0.0,0.0,58,0.00,,,43.52,VWS V14.01,2013-02-07 19:01:00,
2013-02-07 14:03:00,46.2,31.8,30.30,East,90,0.0,0.0,57,0.00,,,43.52,VWS V14.01,2013-02-07 19:03:00,
2013-02-07 14:06:00,46.2,31.8,30.30,NE,45,0.0,0.0,57,0.00,,,43.52,VWS V14.01,2013-02-07 19:06:00,
2013-02-07 14:08:00,46.2,31.8,30.30,NE,45,4.0,4.0,57,0.00,,,43.52,VWS V14.01,2013-02-07 19:08:00,
2013-02-07 14:11:00,46.2,31.8,30.30,SE,135,0.0,4.0,57,0.00,,,43.52,VWS V14.01,2013-02-07 19:11:00,
2013-02-07 14:12:00,46.2,31.8,30.30,NE,45,1.5,1.5,57,0.00,,,43.52,VWS V14.01,2013-02-07 19:12:00,
2013-02-07 14:14:00,46.2,31.8,30.29,SE,135,0.0,1.5,57,0.00,,,43.52,VWS V14.01,2013-02-07 19:14:00,
2013-02-07 14:16:00,46.2,31.4,30.30,NE,45,0.0,6.0,56,0.00,,,43.52,VWS V14.01,2013-02-07 19:16:00,
2013-02-07 14:17:00,46.2,31.4,30.30,NE,45,0.0,6.0,56,0.00,,,43.52,VWS V14.01,2013-02-07 19:17:00,
2013-02-07 14:20:00,46.2,31.8,30.30,East,90,0.0,6.0,57,0.00,,,43.52,VWS V14.01,2013-02-07 19:20:00,
2013-02-07 14:22:00,46.2,31.4,30.29,ENE,68,0.0,0.0,56,0.00,,,43.52,VWS V14.01,2013-02-07 19:22:00,
2013-02-07 14:23:00,46.2,31.4,30.29,NE,45,0.0,0.0,56,0.00,,,43.52,VWS V14.01,2013-02-07 19:23:00,
2013-02-07 14:27:00,46.0,31.6,30.29,East,90,7.8,7.8,57,0.00,,,43.52,VWS V14.01,2013-02-07 19:27:00,
2013-02-07 14:28:00,46.0,31.2,30.29,NE,45,4.9,7.8,56,0.00,,,43.52,VWS V14.01,2013-02-07 19:28:00,
2013-02-07 14:32:00,45.6,31.3,30.29,SE,135,0.0,0.0,57,0.00,,,43.52,VWS V14.01,2013-02-07 19:32:00,
2013-02-07 14:33:00,45.6,31.3,30.29,South,180,0.0,0.0,57,0.00,,,43.52,VWS V14.01,2013-02-07 19:33:00,
2013-02-07 14:34:00,45.6,31.7,30.29,SE,135,0.0,0.0,58,0.00,,,43.52,VWS V14.01,2013-02-07 19:34:00,
2013-02-07 14:37:00,46.0,31.6,30.29,SSE,158,0.0,0.0,57,0.00,,,43.52,VWS V14.01,2013-02-07 19:37:00,
2013-02-07 14:38:00,46.0,31.6,30.29,SSE,158,0.0,0.0,57,0.00,,,43.52,VWS V14.01,2013-02-07 19:38:00,
2013-02-07 14:40:00,46.0,31.6,30.29,ENE,68,0.0,0.0,57,0.00,,,43.52,VWS V14.01,2013-02-07 19:40:00,
2013-02-07 14:43:00,46.4,32.4,30.29,ENE,68,0.0,0.0,58,0.00,,,43.52,VWS V14.01,2013-02-07 19:43:00,
2013-02-07 14:45:00,46.5,32.5,30.29,ENE,68,0.0,0.0,58,0.00,,,43.52,VWS V14.01,2013-02-07 19:45:00,
2013-02-07 14:48:00,46.5,32.1,30.29,ESE,112,0.0,0.0,57,0.00,,,43.52,VWS V14.01,2013-02-07 19:48:00,
2013-02-07 14:50:00,46.5,31.7,30.29,NE,45,0.0,8.9,56,0.00,,,43.52,VWS V14.01,2013-02-07 19:50:00,
2013-02-07 14:51:00,46.5,31.7,30.29,NE,45,0.0,8.9,56,0.00,,,43.52,VWS V14.01,2013-02-07 19:51:00,
2013-02-07 14:53:00,46.2,31.4,30.29,NE,45,4.4,4.4,56,0.00,,,43.52,VWS V14.01,2013-02-07 19:53:00,
2013-02-07 14:54:00,46.2,31.4,30.29,NE,45,4.4,4.4,56,0.00,,,43.52,VWS V14.01,2013-02-07 19:54:00,
2013-02-07 14:56:00,46.0,31.2,30.29,NE,45,6.0,6.0,56,0.00,,,43.52,VWS V14.01,2013-02-07 19:56:00,
2013-02-07 14:59:00,45.6,31.3,30.29,ENE,68,0.0,6.0,57,0.00,,,43.52,VWS V14.01,2013-02-07 19:59:00,
2013-02-07 15:01:00,45.6,31.3,30.29,NE,45,0.0,6.0,57,0.00,,,43.52,VWS V14.01,2013-02-07 20:01:00,
2013-02-07 15:02:00,45.6,31.3,30.29,East,90,0.0,0.0,57,0.00,,,43.52,VWS V14.01,2013-02-07 20:02:00,
2013-02-07 15:04:00,45.6,31.3,30.29,ENE,68,2.0,2.0,57,0.00,,,43.52,VWS V14.01,2013-02-07 20:04:00,
2013-02-07 15:05:00,45.6,31.3,30.29,ENE,68,0.0,2.0,57,0.00,,,43.52,VWS V14.01,2013-02-07 20:05:00,
2013-02-07 15:07:00,45.6,31.7,30.29,ESE,112,0.0,2.0,58,0.00,,,43.52,VWS V14.01,2013-02-07 20:07:00,
2013-02-07 15:08:00,45.6,31.7,30.29,East,90,0.0,2.0,58,0.00,,,43.52,VWS V14.01,2013-02-07 20:08:00,
2013-02-07 15:10:00,45.6,31.3,30.29,SSE,158,0.0,2.0,57,0.00,,,43.52,VWS V14.01,2013-02-07 20:10:00,
2013-02-07 15:11:00,45.6,31.3,30.29,SE,135,0.0,2.0,57,0.00,,,43.52,VWS V14.01,2013-02-07 20:11:00,
2013-02-07 15:12:00,45.6,31.7,30.29,SE,135,0.0,0.0,58,0.00,,,43.52,VWS V14.01,2013-02-07 20:12:00,
2013-02-07 15:13:00,45.6,31.7,30.29,SE,135,0.0,0.0,58,0.00,,,43.52,VWS V14.01,2013-02-07 20:13:00,
2013-02-07 15:15:00,46.0,32.1,30.29,East,90,0.0,0.0,58,0.00,,,43.52,VWS V14.01,2013-02-07 20:15:00,
2013-02-07 15:16:00,46.0,32.1,30.29,East,90,0.0,0.0,58,0.00,,,43.52,VWS V14.01,2013-02-07 20:16:00,
2013-02-07 15:18:00,45.8,31.9,30.29,NE,45,0.0,0.0,58,0.00,,,43.52,VWS V14.01,2013-02-07 20:18:00,
2013-02-07 15:21:00,45.6,31.3,30.28,East,90,0.0,0.0,57,0.00,,,43.52,VWS V14.01,2013-02-07 20:21:00,
2013-02-07 15:22:00,45.5,31.2,30.28,ENE,68,0.0,0.0,57,0.00,,,43.52,VWS V14.01,2013-02-07 20:22:00,
2013-02-07 15:23:00,45.6,31.7,30.29,ENE,68,0.0,0.0,58,0.00,,,43.52,VWS V14.01,2013-02-07 20:23:00,
2013-02-07 15:24:00,45.6,31.7,30.29,ENE,68,0.0,0.0,58,0.00,,,43.52,VWS V14.01,2013-02-07 20:24:00,
2013-02-07 15:26:00,45.5,31.6,30.29,ENE,68,0.0,0.0,58,0.00,,,43.52,VWS V14.01,2013-02-07 20:26:00,
2013-02-07 15:27:00,45.5,31.6,30.29,East,90,0.0,6.4,58,0.00,,,43.52,VWS V14.01,2013-02-07 20:27:00,
2013-02-07 15:29:00,45.5,31.6,30.29,ENE,68,0.0,6.4,58,0.00,,,43.52,VWS V14.01,2013-02-07 20:29:00,
2013-02-07 15:31:00,45.5,31.6,30.29,NE,45,0.0,6.4,58,0.00,,,43.52,VWS V14.01,2013-02-07 20:31:00,
2013-02-07 15:32:00,45.5,31.6,30.29,ENE,68,4.6,4.6,58,0.00,,,43.52,VWS V14.01,2013-02-07 20:32:00,
2013-02-07 15:34:00,45.3,31.4,30.29,NE,45,0.0,4.6,58,0.00,,,43.52,VWS V14.01,2013-02-07 20:34:00,
2013-02-07 15:35:00,45.3,31.4,30.29,ENE,68,0.0,4.6,58,0.00,,,43.52,VWS V14.01,2013-02-07 20:35:00,
2013-02-07 15:37:00,45.3,31.4,30.29,NE,45,0.0,4.6,58,0.00,,,43.52,VWS V14.01,2013-02-07 20:37:00,
2013-02-07 15:38:00,45.1,31.2,30.29,East,90,0.0,4.6,58,0.00,,,43.52,VWS V14.01,2013-02-07 20:38:00,
2013-02-07 15:40:00,45.1,31.2,30.29,SSE,158,0.0,4.6,58,0.00,,,43.52,VWS V14.01,2013-02-07 20:40:00,
2013-02-07 15:42:00,45.1,31.6,30.28,NE,45,6.0,6.0,59,0.00,,,43.52,VWS V14.01,2013-02-07 20:42:00,
2013-02-07 15:43:00,45.1,31.2,30.28,ESE,112,0.6,6.0,58,0.00,,,43.52,VWS V14.01,2013-02-07 20:43:00,
2013-02-07 15:45:00,45.1,31.2,30.28,NE,45,0.0,6.0,58,0.00,,,43.52,VWS V14.01,2013-02-07 20:45:00,
2013-02-07 15:46:00,45.1,31.2,30.28,ENE,68,0.0,6.0,58,0.00,,,43.52,VWS V14.01,2013-02-07 20:46:00,
2013-02-07 15:50:00,45.1,31.2,30.28,ENE,68,0.0,6.0,58,0.00,,,43.52,VWS V14.01,2013-02-07 20:50:00,
2013-02-07 15:51:00,45.1,31.2,30.28,East,90,0.0,6.0,58,0.00,,,43.52,VWS V14.01,2013-02-07 20:51:00,
2013-02-07 15:55:00,44.9,31.0,30.28,East,90,0.0,5.8,58,0.00,,,43.52,VWS V14.01,2013-02-07 20:55:00,
2013-02-07 15:56:00,44.9,31.0,30.28,SSE,158,0.0,5.8,58,0.00,,,43.52,VWS V14.01,2013-02-07 20:56:00,
2013-02-07 15:57:00,44.9,31.0,30.28,SE,135,0.0,5.8,58,0.00,,,43.52,VWS V14.01,2013-02-07 20:57:00,
2013-02-07 16:01:00,45.1,31.6,30.28,East,90,0.0,5.8,59,0.00,,,43.52,VWS V14.01,2013-02-07 21:01:00,
2013-02-07 16:02:00,45.1,31.6,30.27,East,90,0.0,0.0,59,0.00,,,43.52,VWS V14.01,2013-02-07 21:02:00,
2013-02-07 16:07:00,45.1,31.6,30.27,SE,135,0.0,0.6,59,0.00,,,43.52,VWS V14.01,2013-02-07 21:07:00,
2013-02-07 16:12:00,45.1,31.6,30.27,SE,135,0.0,0.0,59,0.00,,,43.52,VWS V14.01,2013-02-07 21:12:00,
2013-02-07 16:13:00,45.1,31.6,30.27,SE,135,0.0,0.0,59,0.00,,,43.52,VWS V14.01,2013-02-07 21:13:00,
2013-02-07 16:18:00,45.1,31.6,30.27,SSE,158,0.0,0.0,59,0.00,,,43.52,VWS V14.01,2013-02-07 21:18:00,
2013-02-07 16:23:00,44.9,31.5,30.27,SE,135,0.0,0.0,59,0.00,,,43.52,VWS V14.01,2013-02-07 21:23:00,
2013-02-07 16:28:00,44.9,31.5,30.27,SSE,158,0.6,9.6,59,0.00,,,43.52,VWS V14.01,2013-02-07 21:28:00,
2013-02-07 16:29:00,44.9,31.5,30.27,ESE,112,0.0,9.6,59,0.00,,,43.52,VWS V14.01,2013-02-07 21:29:00,
2013-02-07 16:30:00,44.7,31.3,30.27,ESE,112,0.0,9.6,59,0.00,,,43.52,VWS V14.01,2013-02-07 21:30:00,
2013-02-07 16:34:00,44.4,31.0,30.27,SE,135,0.0,0.0,59,0.00,,,43.52,VWS V14.01,2013-02-07 21:34:00,
2013-02-07 16:35:00,44.4,31.0,30.28,SE,135,0.0,0.0,59,0.00,,,43.52,VWS V14.01,2013-02-07 21:35:00,
2013-02-07 16:39:00,44.0,30.6,30.28,SE,135,0.0,0.0,59,0.00,,,43.52,VWS V14.01,2013-02-07 21:39:00,
2013-02-07 16:40:00,43.8,30.4,30.28,East,90,0.0,0.0,59,0.00,,,43.52,VWS V14.01,2013-02-07 21:40:00,
2013-02-07 16:41:00,43.8,30.4,30.28,SE,135,0.0,0.0,59,0.00,,,43.52,VWS V14.01,2013-02-07 21:41:00,
2013-02-07 16:44:00,43.7,30.7,30.28,SE,135,0.0,5.3,60,0.00,,,43.52,VWS V14.01,2013-02-07 21:44:00,
2013-02-07 16:45:00,43.5,30.5,30.28,SE,135,0.0,5.3,60,0.00,,,43.52,VWS V14.01,2013-02-07 21:45:00,
2013-02-07 16:46:00,43.5,30.5,30.28,SE,135,0.0,5.3,60,0.00,,,43.52,VWS V14.01,2013-02-07 21:46:00,
2013-02-07 16:50:00,43.3,30.4,30.28,SE,135,0.0,5.3,60,0.00,,,43.52,VWS V14.01,2013-02-07 21:50:00,
2013-02-07 16:51:00,43.3,30.4,30.28,SE,135,0.0,5.3,60,0.00,,,43.52,VWS V14.01,2013-02-07 21:51:00,
2013-02-07 16:54:00,43.1,30.2,30.28,ESE,112,0.0,0.0,60,0.00,,,43.52,VWS V14.01,2013-02-07 21:54:00,
2013-02-07 16:56:00,43.1,30.6,30.28,East,90,0.0,0.0,61,0.00,,,43.52,VWS V14.01,2013-02-07 21:56:00,
2013-02-07 16:57:00,43.1,30.2,30.28,East,90,0.0,0.0,60,0.00,,,43.52,VWS V14.01,2013-02-07 21:57:00,
2013-02-07 16:59:00,42.9,30.4,30.28,ESE,112,0.0,3.1,61,0.00,,,43.52,VWS V14.01,2013-02-07 21:59:00,
2013-02-07 17:01:00,42.9,30.4,30.28,ESE,112,0.0,3.1,61,0.00,,,43.52,VWS V14.01,2013-02-07 22:01:00,
2013-02-07 17:02:00,42.9,30.4,30.28,ESE,112,0.0,0.0,61,0.00,,,43.52,VWS V14.01,2013-02-07 22:02:00,
2013-02-07 17:04:00,42.6,30.1,30.28,ESE,112,0.0,0.0,61,0.00,,,43.52,VWS V14.01,2013-02-07 22:04:00,
2013-02-07 17:06:00,42.6,30.1,30.28,SE,135,0.0,0.0,61,0.00,,,43.52,VWS V14.01,2013-02-07 22:06:00,
2013-02-07 17:07:00,42.6,30.5,30.28,SE,135,0.0,0.0,62,0.00,,,43.52,VWS V14.01,2013-02-07 22:07:00,
2013-02-07 17:10:00,42.4,30.3,30.27,ESE,112,0.0,0.0,62,0.00,,,43.52,VWS V14.01,2013-02-07 22:10:00,
2013-02-07 17:11:00,42.4,30.3,30.27,ESE,112,0.0,0.0,62,0.00,,,43.52,VWS V14.01,2013-02-07 22:11:00,
2013-02-07 17:13:00,42.4,30.3,30.27,ESE,112,0.0,0.0,62,0.00,,,43.52,VWS V14.01,2013-02-07 22:13:00,
2013-02-07 17:15:00,42.0,29.9,30.27,SE,135,0.0,0.0,62,0.00,,,43.52,VWS V14.01,2013-02-07 22:15:00,
2013-02-07 17:16:00,42.0,29.9,30.27,SE,135,0.0,0.0,62,0.00,,,43.52,VWS V14.01,2013-02-07 22:16:00,
2013-02-07 17:17:00,42.0,29.9,30.27,SE,135,0.0,0.0,62,0.00,,,43.52,VWS V14.01,2013-02-07 22:17:00,
2013-02-07 17:19:00,42.0,29.9,30.28,ESE,112,0.0,0.0,62,0.00,,,43.52,VWS V14.01,2013-02-07 22:19:00,
2013-02-07 17:20:00,42.0,29.9,30.28,SE,135,0.0,0.0,62,0.00,,,43.52,VWS V14.01,2013-02-07 22:20:00,
2013-02-07 17:21:00,42.0,29.9,30.28,SE,135,0.0,0.0,62,0.00,,,43.52,VWS V14.01,2013-02-07 22:21:00,
2013-02-07 17:22:00,42.0,29.9,30.28,SE,135,0.0,0.0,62,0.00,,,43.52,VWS V14.01,2013-02-07 22:22:00,
2013-02-07 17:24:00,41.9,30.2,30.28,NE,45,0.0,0.0,63,0.00,,,43.52,VWS V14.01,2013-02-07 22:24:00,
2013-02-07 17:26:00,41.9,30.2,30.28,NE,45,0.0,0.0,63,0.00,,,43.52,VWS V14.01,2013-02-07 22:26:00,
2013-02-07 17:27:00,41.9,30.2,30.27,NE,45,0.0,0.0,63,0.00,,,43.52,VWS V14.01,2013-02-07 22:27:00,
2013-02-07 17:30:00,41.9,30.2,30.28,ESE,112,0.0,0.0,63,0.00,,,43.52,VWS V14.01,2013-02-07 22:30:00,
2013-02-07 17:31:00,41.9,30.2,30.28,ESE,112,0.0,0.0,63,0.00,,,43.52,VWS V14.01,2013-02-07 22:31:00,
2013-02-07 17:33:00,41.7,30.4,30.27,SE,135,0.0,0.0,64,0.00,,,43.52,VWS V14.01,2013-02-07 22:33:00,
2013-02-07 17:35:00,41.7,30.4,30.27,ESE,112,0.0,0.0,64,0.00,,,43.52,VWS V14.01,2013-02-07 22:35:00,
2013-02-07 17:36:00,41.7,30.4,30.28,SE,135,0.0,0.0,64,0.00,,,43.52,VWS V14.01,2013-02-07 22:36:00,
2013-02-07 17:38:00,41.5,30.2,30.28,SE,135,0.0,0.0,64,0.00,,,43.52,VWS V14.01,2013-02-07 22:38:00,
2013-02-07 17:39:00,41.5,30.2,30.27,SE,135,0.0,0.0,64,0.00,,,43.52,VWS V14.01,2013-02-07 22:39:00,
2013-02-07 17:41:00,41.5,30.2,30.27,ESE,112,0.0,0.0,64,0.00,,,43.52,VWS V14.01,2013-02-07 22:41:00,
2013-02-07 17:42:00,41.5,30.2,30.27,ENE,68,0.0,0.0,64,0.00,,,43.52,VWS V14.01,2013-02-07 22:42:00,
2013-02-07 17:43:00,41.5,30.2,30.27,ENE,68,0.0,0.0,64,0.00,,,43.52,VWS V14.01,2013-02-07 22:43:00,
2013-02-07 17:44:00,41.5,30.2,30.27,ENE,68,0.0,0.0,64,0.00,,,43.52,VWS V14.01,2013-02-07 22:44:00,
2013-02-07 17:46:00,41.5,30.6,30.27,ENE,68,0.0,0.0,65,0.00,,,43.52,VWS V14.01,2013-02-07 22:46:00,
2013-02-07 17:47:00,41.5,30.6,30.27,East,90,0.0,0.0,65,0.00,,,43.52,VWS V14.01,2013-02-07 22:47:00,
2013-02-07 17:49:00,41.5,30.6,30.27,ESE,112,0.0,0.0,65,0.00,,,43.52,VWS V14.01,2013-02-07 22:49:00,
2013-02-07 17:51:00,41.5,30.6,30.27,ESE,112,0.0,0.0,65,0.00,,,43.52,VWS V14.01,2013-02-07 22:51:00,
2013-02-07 17:53:00,41.5,30.6,30.27,ESE,112,0.0,0.0,65,0.00,,,43.52,VWS V14.01,2013-02-07 22:53:00,
2013-02-07 17:54:00,41.5,30.6,30.27,ESE,112,0.0,0.0,65,0.00,,,43.52,VWS V14.01,2013-02-07 22:54:00,
2013-02-07 17:58:00,41.3,30.4,30.27,ESE,112,0.0,0.0,65,0.00,,,43.52,VWS V14.01,2013-02-07 22:58:00,
2013-02-07 18:00:00,41.3,30.4,30.28,ESE,112,0.0,0.0,65,0.00,,,43.52,VWS V14.01,2013-02-07 23:00:00,
2013-02-07 18:03:00,41.1,30.2,30.27,ENE,68,0.0,0.0,65,0.00,,,43.52,VWS V14.01,2013-02-07 23:03:00,
2013-02-07 18:05:00,41.3,30.4,30.27,ENE,68,0.0,0.0,65,0.00,,,43.52,VWS V14.01,2013-02-07 23:05:00,
2013-02-07 18:06:00,41.1,30.6,30.27,ENE,68,0.0,0.0,66,0.00,,,43.52,VWS V14.01,2013-02-07 23:06:00,
2013-02-07 18:09:00,41.1,30.6,30.28,ENE,68,0.0,0.0,66,0.00,,,43.52,VWS V14.01,2013-02-07 23:09:00,
2013-02-07 18:10:00,41.1,30.6,30.28,NE,45,0.0,0.0,66,0.00,,,43.52,VWS V14.01,2013-02-07 23:10:00,
2013-02-07 18:11:00,41.1,30.6,30.28,NE,45,0.0,0.0,66,0.00,,,43.52,VWS V14.01,2013-02-07 23:11:00,
2013-02-07 18:14:00,41.1,30.6,30.28,NE,45,0.0,0.0,66,0.00,,,43.52,VWS V14.01,2013-02-07 23:14:00,
2013-02-07 18:15:00,41.1,31.0,30.27,NE,45,0.0,0.0,67,0.00,,,43.52,VWS V14.01,2013-02-07 23:15:00,
2013-02-07 18:16:00,41.1,31.0,30.27,NE,45,0.0,0.0,67,0.00,,,43.52,VWS V14.01,2013-02-07 23:16:00,
2013-02-07 18:20:00,41.1,31.0,30.27,ENE,68,0.0,0.0,67,0.00,,,43.52,VWS V14.01,2013-02-07 23:20:00,
2013-02-07 18:21:00,41.1,31.0,30.27,ENE,68,0.0,0.0,67,0.00,,,43.52,VWS V14.01,2013-02-07 23:21:00,
2013-02-07 18:22:00,41.1,31.0,30.27,ENE,68,0.0,0.0,67,0.00,,,43.52,VWS V14.01,2013-02-07 23:22:00,
2013-02-07 18:26:00,41.0,30.9,30.27,ESE,112,0.0,0.0,67,0.00,,,43.52,VWS V14.01,2013-02-07 23:26:00,
2013-02-07 18:27:00,41.0,30.9,30.27,ESE,112,0.0,0.0,67,0.00,,,43.52,VWS V14.01,2013-02-07 23:27:00,
2013-02-07 18:33:00,41.0,31.3,30.27,East,90,0.0,0.0,68,0.00,,,43.52,VWS V14.01,2013-02-07 23:33:00,
2013-02-07 18:34:00,41.0,31.3,30.27,East,90,0.0,0.0,68,0.00,,,43.52,VWS V14.01,2013-02-07 23:34:00,
2013-02-07 18:38:00,41.0,31.3,30.27,East,90,0.0,0.0,68,0.00,,,43.52,VWS V14.01,2013-02-07 23:38:00,
2013-02-07 18:39:00,41.0,31.3,30.27,East,90,0.0,0.0,68,0.00,,,43.52,VWS V14.01,2013-02-07 23:39:00,
2013-02-07 18:41:00,41.0,31.3,30.27,ENE,68,0.0,0.0,68,0.00,,,43.52,VWS V14.01,2013-02-07 23:41:00,
2013-02-07 18:43:00,41.0,31.3,30.28,ENE,68,0.0,0.0,68,0.00,,,43.52,VWS V14.01,2013-02-07 23:43:00,
2013-02-07 18:44:00,41.0,31.3,30.28,ENE,68,0.0,0.0,68,0.00,,,43.52,VWS V14.01,2013-02-07 23:44:00,
2013-02-07 18:47:00,41.0,31.3,30.27,NE,45,0.0,0.0,68,0.00,,,43.52,VWS V14.01,2013-02-07 23:47:00,
2013-02-07 18:49:00,41.1,31.4,30.27,NE,45,0.0,0.0,68,0.00,,,43.52,VWS V14.01,2013-02-07 23:49:00,
2013-02-07 18:50:00,41.0,31.3,30.27,NE,45,0.0,0.0,68,0.00,,,43.52,VWS V14.01,2013-02-07 23:50:00,
2013-02-07 18:51:00,41.0,31.3,30.27,NE,45,0.0,0.0,68,0.00,,,43.52,VWS V14.01,2013-02-07 23:51:00,
2013-02-07 18:54:00,41.0,31.6,30.27,NE,45,0.0,0.0,69,0.00,,,43.52,VWS V14.01,2013-02-07 23:54:00,
2013-02-07 18:55:00,41.0,31.6,30.27,NE,45,0.0,0.0,69,0.00,,,43.52,VWS V14.01,2013-02-07 23:55:00,
2013-02-07 18:58:00,41.0,31.6,30.27,NE,45,0.0,0.0,69,0.00,,,43.52,VWS V14.01,2013-02-07 23:58:00,
2013-02-07 18:59:00,40.8,31.4,30.27,NE,45,0.0,0.0,69,0.00,,,43.52,VWS V14.01,2013-02-07 23:59:00,
2013-02-07 19:01:00,40.8,31.4,30.27,ESE,112,0.0,0.0,69,0.00,,,43.52,VWS V14.01,2013-02-08 00:01:00,
2013-02-07 19:03:00,40.8,31.4,30.27,SE,135,0.0,0.0,69,0.00,,,43.52,VWS V14.01,2013-02-08 00:03:00,
2013-02-07 19:04:00,40.8,31.4,30.27,NE,45,0.0,0.0,69,0.00,,,43.52,VWS V14.01,2013-02-08 00:04:00,
2013-02-07 19:05:00,40.8,31.4,30.27,NE,45,0.0,0.0,69,0.00,,,43.52,VWS V14.01,2013-02-08 00:05:00,
2013-02-07 19:07:00,40.8,31.4,30.27,ESE,112,0.0,0.0,69,0.00,,,43.52,VWS V14.01,2013-02-08 00:07:00,
2013-02-07 19:09:00,40.6,31.6,30.26,East,90,0.0,0.0,70,0.00,,,43.52,VWS V14.01,2013-02-08 00:09:00,
2013-02-07 19:10:00,40.6,31.6,30.26,East,90,0.0,0.0,70,0.00,,,43.52,VWS V14.01,2013-02-08 00:10:00,
2013-02-07 19:12:00,40.6,31.6,30.26,SSE,158,2.2,2.2,70,0.00,,,43.52,VWS V14.01,2013-02-08 00:12:00,
2013-02-07 19:15:00,40.6,31.6,30.26,ENE,68,0.0,2.2,70,0.00,,,43.52,VWS V14.01,2013-02-08 00:15:00,
2013-02-07 19:16:00,40.6,31.6,30.26,NE,45,2.4,2.4,70,0.00,,,43.52,VWS V14.01,2013-02-08 00:16:00,
2013-02-07 19:18:00,40.6,31.6,30.26,East,90,0.0,2.4,70,0.00,,,43.52,VWS V14.01,2013-02-08 00:18:00,
2013-02-07 19:21:00,40.6,31.6,30.26,ENE,68,0.0,2.4,70,0.00,,,43.52,VWS V14.01,2013-02-08 00:21:00,
2013-02-07 19:22:00,40.4,31.4,30.26,East,90,0.0,0.0,70,0.00,,,43.52,VWS V14.01,2013-02-08 00:22:00,
2013-02-07 19:24:00,40.4,31.4,30.26,NE,45,0.0,0.0,70,0.00,,,43.52,VWS V14.01,2013-02-08 00:24:00,
2013-02-07 19:26:00,40.6,31.6,30.26,NE,45,0.0,0.0,70,0.00,,,43.52,VWS V14.01,2013-02-08 00:26:00,
2013-02-07 19:28:00,40.4,31.4,30.26,East,90,0.0,0.0,70,0.00,,,43.52,VWS V14.01,2013-02-08 00:28:00,
2013-02-07 19:30:00,40.4,31.4,30.26,ENE,68,0.0,0.0,70,0.00,,,43.52,VWS V14.01,2013-02-08 00:30:00,
2013-02-07 19:32:00,40.4,31.4,30.26,ENE,68,0.0,0.0,70,0.00,,,43.52,VWS V14.01,2013-02-08 00:32:00,
2013-02-07 19:34:00,40.4,31.4,30.26,ENE,68,0.0,0.0,70,0.00,,,43.52,VWS V14.01,2013-02-08 00:34:00,
2013-02-07 19:35:00,40.4,31.4,30.26,ENE,68,0.0,0.0,70,0.00,,,43.52,VWS V14.01,2013-02-08 00:35:00,
2013-02-07 19:37:00,40.2,31.6,30.25,ENE,68,0.0,0.0,71,0.00,,,43.52,VWS V14.01,2013-02-08 00:37:00,
2013-02-07 19:40:00,40.2,31.6,30.25,ENE,68,0.0,0.0,71,0.00,,,43.52,VWS V14.01,2013-02-08 00:40:00,
2013-02-07 19:43:00,40.2,31.6,30.25,East,90,0.0,0.0,71,0.00,,,43.52,VWS V14.01,2013-02-08 00:43:00,
2013-02-07 19:44:00,40.2,31.6,30.25,ENE,68,0.0,0.0,71,0.00,,,43.52,VWS V14.01,2013-02-08 00:44:00,
2013-02-07 19:45:00,40.2,31.6,30.25,ENE,68,0.0,0.0,71,0.00,,,43.52,VWS V14.01,2013-02-08 00:45:00,
2013-02-07 19:46:00,40.2,31.6,30.25,ENE,68,0.0,0.0,71,0.00,,,43.52,VWS V14.01,2013-02-08 00:46:00,
2013-02-07 19:48:00,40.2,31.6,30.25,East,90,0.0,2.0,71,0.00,,,43.52,VWS V14.01,2013-02-08 00:48:00,
2013-02-07 19:50:00,40.2,31.6,30.25,ENE,68,5.5,5.5,71,0.00,,,43.52,VWS V14.01,2013-02-08 00:50:00,
2013-02-07 19:51:00,40.2,31.6,30.25,NE,45,0.0,5.5,71,0.00,,,43.52,VWS V14.01,2013-02-08 00:51:00,
2013-02-07 19:56:00,40.2,31.6,30.25,ENE,68,0.0,0.0,71,0.00,,,43.52,VWS V14.01,2013-02-08 00:56:00,
2013-02-07 19:57:00,40.2,31.6,30.25,ENE,68,0.0,0.0,71,0.00,,,43.52,VWS V14.01,2013-02-08 00:57:00,
2013-02-07 19:58:00,40.2,31.6,30.25,ENE,68,0.0,0.0,71,0.00,,,43.52,VWS V14.01,2013-02-08 00:58:00,
2013-02-07 20:01:00,40.1,31.5,30.25,ENE,68,0.0,0.0,71,0.00,,,43.52,VWS V14.01,2013-02-08 01:01:00,
2013-02-07 20:02:00,40.1,31.5,30.25,ENE,68,0.0,0.0,71,0.00,,,43.52,VWS V14.01,2013-02-08 01:02:00,
2013-02-07 20:04:00,40.1,31.5,30.25,ENE,68,0.0,0.0,71,0.00,,,43.52,VWS V14.01,2013-02-08 01:04:00,
2013-02-07 20:06:00,40.1,31.8,30.25,NE,45,0.0,0.0,72,0.00,,,43.52,VWS V14.01,2013-02-08 01:06:00,
2013-02-07 20:07:00,40.1,31.8,30.25,NE,45,0.0,0.0,72,0.00,,,43.52,VWS V14.01,2013-02-08 01:07:00,
2013-02-07 20:09:00,40.1,31.8,30.24,NE,45,0.0,0.0,72,0.00,,,43.52,VWS V14.01,2013-02-08 01:09:00,
2013-02-07 20:12:00,40.1,31.8,30.24,ENE,68,0.0,0.0,72,0.00,,,43.52,VWS V14.01,2013-02-08 01:12:00,
2013-02-07 20:13:00,40.1,31.8,30.24,ENE,68,0.0,0.0,72,0.00,,,43.52,VWS V14.01,2013-02-08 01:13:00,
2013-02-07 20:14:00,40.1,31.8,30.24,NE,45,0.0,0.0,72,0.00,,,43.52,VWS V14.01,2013-02-08 01:14:00,
2013-02-07 20:18:00,40.1,31.8,30.24,NE,45,0.0,0.0,72,0.00,,,43.52,VWS V14.01,2013-02-08 01:18:00,
2013-02-07 20:20:00,39.9,31.6,30.24,NE,45,0.0,0.0,72,0.00,,,43.52,VWS V14.01,2013-02-08 01:20:00,
2013-02-07 20:23:00,39.9,31.6,30.24,East,90,0.0,4.6,72,0.00,,,43.52,VWS V14.01,2013-02-08 01:23:00,
2013-02-07 20:24:00,39.9,31.6,30.24,East,90,0.0,4.6,72,0.00,,,43.52,VWS V14.01,2013-02-08 01:24:00,
2013-02-07 20:26:00,39.9,31.6,30.24,ENE,68,0.0,4.6,72,0.00,,,43.52,VWS V14.01,2013-02-08 01:26:00,
2013-02-07 20:29:00,39.9,31.6,30.23,ENE,68,0.0,4.6,72,0.00,,,43.52,VWS V14.01,2013-02-08 01:29:00,
2013-02-07 20:31:00,39.9,31.6,30.24,NE,45,0.0,4.6,72,0.00,,,43.52,VWS V14.01,2013-02-08 01:31:00,
2013-02-07 20:34:00,39.9,31.6,30.23,ENE,68,0.0,0.0,72,0.00,,,43.52,VWS V14.01,2013-02-08 01:34:00,
2013-02-07 20:37:00,39.9,31.6,30.23,NE,45,0.0,0.0,72,0.00,,,43.52,VWS V14.01,2013-02-08 01:37:00,
2013-02-07 20:39:00,39.9,31.6,30.23,East,90,0.0,0.0,72,0.00,,,43.52,VWS V14.01,2013-02-08 01:39:00,
2013-02-07 20:43:00,39.9,31.6,30.23,ESE,112,2.0,2.0,72,0.00,,,43.52,VWS V14.01,2013-02-08 01:43:00,
2013-02-07 20:44:00,39.7,31.4,30.23,NE,45,0.0,2.0,72,0.00,,,43.52,VWS V14.01,2013-02-08 01:44:00,
2013-02-07 20:45:00,39.7,31.4,30.23,NE,45,0.0,2.0,72,0.00,,,43.52,VWS V14.01,2013-02-08 01:45:00,
2013-02-07 20:48:00,39.7,31.4,30.23,NE,45,0.0,2.0,72,0.00,,,43.52,VWS V14.01,2013-02-08 01:48:00,
2013-02-07 20:50:00,39.7,31.4,30.23,ENE,68,0.0,2.0,72,0.00,,,43.52,VWS V14.01,2013-02-08 01:50:00,
2013-02-07 20:53:00,39.7,31.4,30.22,ENE,68,0.0,0.0,72,0.00,,,43.52,VWS V14.01,2013-02-08 01:53:00,
2013-02-07 20:55:00,39.7,31.4,30.22,ENE,68,0.0,0.0,72,0.00,,,43.52,VWS V14.01,2013-02-08 01:55:00,
2013-02-07 20:58:00,39.7,31.4,30.22,ENE,68,0.0,0.0,72,0.00,,,43.52,VWS V14.01,2013-02-08 01:58:00,
2013-02-07 21:00:00,39.7,31.4,30.22,ENE,68,0.0,0.0,72,0.00,,,43.52,VWS V14.01,2013-02-08 02:00:00,
2013-02-07 21:01:00,39.7,31.4,30.22,ENE,68,0.0,0.0,72,0.00,,,43.52,VWS V14.01,2013-02-08 02:01:00,
2013-02-07 21:03:00,39.7,31.4,30.22,ENE,68,0.0,0.0,72,0.00,,,43.52,VWS V14.01,2013-02-08 02:03:00,
2013-02-07 21:04:00,39.7,31.4,30.22,ENE,68,0.0,0.0,72,0.00,,,43.52,VWS V14.01,2013-02-08 02:04:00,
2013-02-07 21:06:00,39.7,31.4,30.22,ENE,68,0.0,0.0,72,0.00,,,43.52,VWS V14.01,2013-02-08 02:06:00,
2013-02-07 21:08:00,39.7,31.4,30.22,ENE,68,0.0,0.0,72,0.00,,,43.52,VWS V14.01,2013-02-08 02:08:00,
2013-02-07 21:09:00,39.7,31.4,30.22,ENE,68,0.0,0.0,72,0.00,,,43.52,VWS V14.01,2013-02-08 02:09:00,
2013-02-07 21:11:00,39.5,31.2,30.22,ENE,68,0.0,0.0,72,0.00,,,43.52,VWS V14.01,2013-02-08 02:11:00,
2013-02-07 21:12:00,39.5,31.2,30.22,ENE,68,0.0,0.0,72,0.00,,,43.52,VWS V14.01,2013-02-08 02:12:00,
2013-02-07 21:13:00,39.5,31.2,30.21,East,90,0.0,0.0,72,0.00,,,43.52,VWS V14.01,2013-02-08 02:13:00,
2013-02-07 21:15:00,39.5,31.2,30.21,ENE,68,0.0,0.0,72,0.00,,,43.52,VWS V14.01,2013-02-08 02:15:00,
2013-02-07 21:16:00,39.5,31.2,30.21,ENE,68,0.0,0.0,72,0.00,,,43.52,VWS V14.01,2013-02-08 02:16:00,
2013-02-07 21:17:00,39.5,31.2,30.21,ENE,68,0.0,0.0,72,0.00,,,43.52,VWS V14.01,2013-02-08 02:17:00,
2013-02-07 21:18:00,39.5,31.2,30.21,ENE,68,0.0,0.0,72,0.00,,,43.52,VWS V14.01,2013-02-08 02:18:00,
2013-02-07 21:21:00,39.5,31.6,30.21,ENE,68,0.0,0.0,73,0.00,,,43.52,VWS V14.01,2013-02-08 02:21:00,
2013-02-07 21:22:00,39.3,31.4,30.21,ENE,68,0.0,0.0,73,0.00,,,43.52,VWS V14.01,2013-02-08 02:22:00,
2013-02-07 21:24:00,39.3,31.4,30.21,ENE,68,0.0,0.0,73,0.00,,,43.52,VWS V14.01,2013-02-08 02:24:00,
2013-02-07 21:26:00,39.3,31.4,30.21,ENE,68,0.0,0.0,73,0.00,,,43.52,VWS V14.01,2013-02-08 02:26:00,
2013-02-07 21:27:00,39.3,31.4,30.21,East,90,0.0,0.0,73,0.00,,,43.52,VWS V14.01,2013-02-08 02:27:00,
2013-02-07 21:28:00,39.3,31.4,30.21,East,90,0.0,0.0,73,0.00,,,43.52,VWS V14.01,2013-02-08 02:28:00,
2013-02-07 21:30:00,39.3,31.4,30.21,NE,45,0.0,0.0,73,0.00,,,43.52,VWS V14.01,2013-02-08 02:30:00,
2013-02-07 21:32:00,39.3,31.4,30.21,East,90,2.9,2.9,73,0.00,,,43.52,VWS V14.01,2013-02-08 02:32:00,
2013-02-07 21:33:00,39.3,31.7,30.21,East,90,0.0,2.9,74,0.00,,,43.52,VWS V14.01,2013-02-08 02:33:00,
2013-02-07 21:35:00,39.3,31.7,30.21,East,90,0.0,2.9,74,0.00,,,43.52,VWS V14.01,2013-02-08 02:35:00,
2013-02-07 21:38:00,39.2,31.6,30.21,East,90,0.0,2.9,74,0.00,,,43.52,VWS V14.01,2013-02-08 02:38:00,
2013-02-07 21:41:00,39.0,31.4,30.21,ENE,68,0.0,0.0,74,0.00,,,43.52,VWS V14.01,2013-02-08 02:41:00,
2013-02-07 21:43:00,39.0,31.4,30.21,ENE,68,0.0,0.0,74,0.00,,,43.52,VWS V14.01,2013-02-08 02:43:00,
2013-02-07 21:44:00,39.0,31.4,30.20,East,90,0.0,0.0,74,0.00,,,43.52,VWS V14.01,2013-02-08 02:44:00,
2013-02-07 21:47:00,39.0,31.8,30.20,NE,45,0.0,0.0,75,0.00,,,43.52,VWS V14.01,2013-02-08 02:47:00,
2013-02-07 21:49:00,39.0,31.8,30.20,NE,45,0.0,0.0,75,0.00,,,43.52,VWS V14.01,2013-02-08 02:49:00,
2013-02-07 21:53:00,38.8,31.6,30.20,ESE,112,0.0,0.0,75,0.00,,,43.52,VWS V14.01,2013-02-08 02:53:00,
2013-02-07 21:54:00,38.8,31.9,30.20,ESE,112,0.0,0.0,76,0.00,,,43.52,VWS V14.01,2013-02-08 02:54:00,
2013-02-07 21:55:00,38.8,31.9,30.20,ESE,112,0.0,0.0,76,0.00,,,43.52,VWS V14.01,2013-02-08 02:55:00,
2013-02-07 21:58:00,38.4,31.5,30.20,ESE,112,0.0,0.0,76,0.00,,,43.52,VWS V14.01,2013-02-08 02:58:00,
2013-02-07 21:59:00,38.4,31.5,30.20,ESE,112,0.0,0.0,76,0.00,,,43.52,VWS V14.01,2013-02-08 02:59:00,
2013-02-07 22:00:00,38.4,31.5,30.20,ESE,112,0.0,0.0,76,0.00,,,43.52,VWS V14.01,2013-02-08 03:00:00,
2013-02-07 22:04:00,38.3,31.7,30.20,ENE,68,0.0,0.0,77,0.00,,,43.52,VWS V14.01,2013-02-08 03:04:00,
2013-02-07 22:05:00,38.3,31.7,30.19,ENE,68,0.0,0.0,77,0.00,,,43.52,VWS V14.01,2013-02-08 03:05:00,
2013-02-07 22:10:00,38.1,31.9,30.19,East,90,0.0,0.0,78,0.00,,,43.52,VWS V14.01,2013-02-08 03:10:00,
2013-02-07 22:11:00,38.1,31.9,30.19,ENE,68,0.0,0.0,78,0.00,,,43.52,VWS V14.01,2013-02-08 03:11:00,
2013-02-07 22:15:00,37.9,32.0,30.19,NE,45,0.0,0.0,79,0.00,,,43.52,VWS V14.01,2013-02-08 03:15:00,
2013-02-07 22:16:00,37.9,32.0,30.19,NE,45,0.0,0.0,79,0.00,,,43.52,VWS V14.01,2013-02-08 03:16:00,
2013-02-07 22:20:00,37.7,31.8,30.19,NE,45,0.0,0.0,79,0.00,,,43.52,VWS V14.01,2013-02-08 03:20:00,
2013-02-07 22:21:00,37.7,31.8,30.19,NE,45,0.0,0.0,79,0.00,,,43.52,VWS V14.01,2013-02-08 03:21:00,
2013-02-07 22:22:00,37.7,31.8,30.19,NE,45,0.0,0.0,79,0.00,,,43.52,VWS V14.01,2013-02-08 03:22:00,
2013-02-07 22:25:00,37.5,31.9,30.19,NE,45,0.0,0.0,80,0.00,,,43.52,VWS V14.01,2013-02-08 03:25:00,
2013-02-07 22:26:00,37.5,31.9,30.19,NE,45,0.0,0.0,80,0.00,,,43.52,VWS V14.01,2013-02-08 03:26:00,
2013-02-07 22:27:00,37.5,31.9,30.19,NE,45,0.0,0.0,80,0.00,,,43.52,VWS V14.01,2013-02-08 03:27:00,
2013-02-07 22:31:00,37.5,31.9,30.19,NE,45,0.0,0.0,80,0.00,,,43.52,VWS V14.01,2013-02-08 03:31:00,
2013-02-07 22:33:00,37.5,31.9,30.18,NE,45,0.0,0.0,80,0.00,,,43.52,VWS V14.01,2013-02-08 03:33:00,
2013-02-07 22:36:00,37.4,32.1,30.18,NE,45,0.0,0.0,81,0.00,,,43.52,VWS V14.01,2013-02-08 03:36:00,
2013-02-07 22:37:00,37.4,32.1,30.18,NE,45,0.0,0.0,81,0.00,,,43.52,VWS V14.01,2013-02-08 03:37:00,
2013-02-07 22:39:00,37.4,32.1,30.18,NE,45,0.0,0.0,81,0.00,,,43.52,VWS V14.01,2013-02-08 03:39:00,
2013-02-07 22:42:00,37.4,32.1,30.18,NE,45,0.0,0.0,81,0.00,,,43.52,VWS V14.01,2013-02-08 03:42:00,
2013-02-07 22:44:00,37.2,31.9,30.18,NE,45,0.0,0.0,81,0.00,,,43.52,VWS V14.01,2013-02-08 03:44:00,
2013-02-07 22:45:00,37.2,32.2,30.18,NE,45,0.0,0.0,82,0.00,,,43.52,VWS V14.01,2013-02-08 03:45:00,
2013-02-07 22:47:00,37.2,32.2,30.18,NE,45,0.0,0.0,82,0.00,,,43.52,VWS V14.01,2013-02-08 03:47:00,
2013-02-07 22:50:00,37.2,32.2,30.18,NE,45,0.0,0.0,82,0.00,,,43.52,VWS V14.01,2013-02-08 03:50:00,
2013-02-07 22:52:00,37.2,32.2,30.18,NE,45,0.0,0.0,82,0.00,,,43.52,VWS V14.01,2013-02-08 03:52:00,
2013-02-07 22:53:00,37.2,32.2,30.18,NE,45,0.0,0.0,82,0.00,,,43.52,VWS V14.01,2013-02-08 03:53:00,
2013-02-07 22:55:00,37.2,32.5,30.18,NE,45,0.0,0.0,83,0.00,,,43.52,VWS V14.01,2013-02-08 03:55:00,
2013-02-07 22:56:00,37.2,32.5,30.18,NE,45,0.0,0.0,83,0.00,,,43.52,VWS V14.01,2013-02-08 03:56:00,
2013-02-07 22:58:00,37.2,32.5,30.17,NE,45,0.0,0.0,83,0.00,,,43.52,VWS V14.01,2013-02-08 03:58:00,
2013-02-07 22:59:00,37.2,32.5,30.17,NE,45,0.0,0.0,83,0.00,,,43.52,VWS V14.01,2013-02-08 03:59:00,
2013-02-07 23:01:00,37.2,32.5,30.17,NE,45,0.0,0.0,83,0.00,,,43.52,VWS V14.01,2013-02-08 04:01:00,
2013-02-07 23:02:00,37.2,32.5,30.17,NE,45,0.0,0.0,83,0.00,,,43.52,VWS V14.01,2013-02-08 04:02:00,
2013-02-07 23:03:00,37.2,32.5,30.17,NE,45,0.0,0.0,83,0.00,,,43.52,VWS V14.01,2013-02-08 04:03:00,
2013-02-07 23:04:00,37.2,32.5,30.17,NE,45,0.0,0.0,83,0.00,,,43.52,VWS V14.01,2013-02-08 04:04:00,
2013-02-07 23:06:00,37.2,32.5,30.17,ENE,68,0.0,0.0,83,0.00,,,43.52,VWS V14.01,2013-02-08 04:06:00,
2013-02-07 23:08:00,37.2,32.5,30.17,ENE,68,0.0,0.0,83,0.00,,,43.52,VWS V14.01,2013-02-08 04:08:00,
2013-02-07 23:09:00,37.2,32.5,30.17,ENE,68,0.0,0.0,83,0.00,,,43.52,VWS V14.01,2013-02-08 04:09:00,
2013-02-07 23:12:00,37.2,32.8,30.17,NNE,22,0.0,0.0,84,0.00,,,43.52,VWS V14.01,2013-02-08 04:12:00,
2013-02-07 23:13:00,37.2,32.8,30.17,ENE,68,0.0,0.0,84,0.02,,,43.54,VWS V14.01,2013-02-08 04:13:00,
2013-02-07 23:14:00,37.2,32.8,30.16,ENE,68,0.0,0.0,84,0.02,,,43.54,VWS V14.01,2013-02-08 04:14:00,
2013-02-07 23:17:00,37.2,32.8,30.16,ENE,68,0.0,0.0,84,0.02,,,43.54,VWS V14.01,2013-02-08 04:17:00,
2013-02-07 23:18:00,37.2,32.8,30.16,ENE,68,0.0,0.0,84,0.02,,,43.54,VWS V14.01,2013-02-08 04:18:00,
2013-02-07 23:19:00,37.0,32.6,30.16,NE,45,0.0,0.0,84,0.02,,,43.54,VWS V14.01,2013-02-08 04:19:00,
2013-02-07 23:20:00,37.0,32.6,30.16,NE,45,0.0,0.0,84,0.02,,,43.54,VWS V14.01,2013-02-08 04:20:00,
2013-02-07 23:23:00,37.0,32.6,30.16,NE,45,0.0,0.0,84,0.02,,,43.54,VWS V14.01,2013-02-08 04:23:00,
2013-02-07 23:24:00,37.0,32.6,30.16,NE,45,0.0,0.0,84,0.02,,,43.54,VWS V14.01,2013-02-08 04:24:00,
2013-02-07 23:26:00,37.0,32.6,30.17,NE,45,0.0,0.0,84,0.02,,,43.54,VWS V14.01,2013-02-08 04:26:00,
2013-02-07 23:28:00,37.0,32.6,30.16,NE,45,0.0,0.0,84,0.02,,,43.54,VWS V14.01,2013-02-08 04:28:00,
2013-02-07 23:30:00,37.0,32.6,30.16,NE,45,0.0,0.0,84,0.02,,,43.54,VWS V14.01,2013-02-08 04:30:00,
2013-02-07 23:31:00,37.0,32.9,30.16,NE,45,0.0,0.0,85,0.02,,,43.54,VWS V14.01,2013-02-08 04:31:00,
2013-02-07 23:34:00,37.0,32.9,30.16,ENE,68,0.0,0.0,85,0.02,,,43.54,VWS V14.01,2013-02-08 04:34:00,
2013-02-07 23:35:00,37.0,32.9,30.16,ENE,68,0.0,0.0,85,0.02,,,43.54,VWS V14.01,2013-02-08 04:35:00,
2013-02-07 23:37:00,37.0,32.9,30.16,ENE,68,0.0,0.0,85,0.02,,,43.54,VWS V14.01,2013-02-08 04:37:00,
2013-02-07 23:41:00,37.0,33.0,39.24,NE,45,0.0,0.0,85,16.45,,,59.98,VWS V14.01,2013-02-08 04:41:00,
2013-02-07 23:42:00,37.0,32.9,30.16,NE,45,0.0,0.0,85,0.02,,,43.54,VWS V14.01,2013-02-08 04:42:00,
2013-02-07 23:46:00,36.8,32.7,30.16,East,90,0.0,0.0,85,0.02,,,43.54,VWS V14.01,2013-02-08 04:46:00,
2013-02-07 23:47:00,36.8,32.7,30.16,East,90,0.0,0.0,85,0.02,,,43.54,VWS V14.01,2013-02-08 04:47:00,
2013-02-07 23:49:00,36.8,33.0,30.15,East,90,0.0,0.0,86,0.02,,,43.54,VWS V14.01,2013-02-08 04:49:00,
2013-02-07 23:52:00,36.8,33.0,30.15,East,90,0.0,0.0,86,0.02,,,43.54,VWS V14.01,2013-02-08 04:52:00,
2013-02-07 23:53:00,36.8,33.0,30.15,East,90,0.0,0.0,86,0.02,,,43.54,VWS V14.01,2013-02-08 04:53:00,
2013-02-07 23:55:00,36.6,32.8,30.15,East,90,0.0,0.0,86,0.02,,,43.54,VWS V14.01,2013-02-08 04:55:00,
2013-02-07 23:57:00,36.8,33.0,30.15,ENE,68,0.0,0.0,86,0.02,,,43.54,VWS V14.01,2013-02-08 04:57:00,
2013-02-07 23:59:00,36.8,33.0,30.15,ENE,68,0.0,0.0,86,0.02,,,43.54,VWS V14.01,2013-02-08 04:59:00,